EW4141 Weather Reports


time (UTC)temp
C
wind
direction
speed
KPH
gust
KPH
rain 1hr
cm
rain 24hr
cm
rain mn
cm
humidity
%
barometer
mb
20260506162805 17 201 11.3 38.6 0.00 0.00 0.00 74 1009.7
20260506162705 17 203 12.9 38.6 0.00 0.00 0.00 74 1009.7
20260506162604 17 203 11.3 38.6 0.00 0.00 0.00 74 1009.8
20260506162505 17 200 12.9 38.6 0.00 0.00 0.00 74 1009.8
20260506162405 17 202 12.9 38.6 0.00 0.00 0.00 74 1009.8
20260506162307 17 201 12.9 38.6 0.00 0.00 0.00 74 1009.8
20260506162205 17 200 11.3 38.6 0.00 0.00 0.00 74 1009.8
20260506162105 17 203 11.3 38.6 0.00 0.00 0.00 74 1009.8
20260506162005 17 205 9.7 29.0 0.00 0.00 0.00 74 1009.9
20260506161905 17 202 11.3 25.7 0.00 0.00 0.00 74 1009.8
20260506161805 17 202 11.3 27.4 0.00 0.00 0.00 74 1009.8
20260506161705 17 203 9.7 27.4 0.00 0.00 0.00 74 1009.8
20260506161619 17 196 9.7 27.4 0.00 0.00 0.00 74 1010.0
20260506161105 17 200 12.9 32.2 0.00 0.00 0.00 74 1009.7
20260506161005 17 200 12.9 32.2 0.00 0.00 0.00 74 1009.8
20260506160905 17 200 12.9 32.2 0.00 0.00 0.00 74 1009.9
20260506160805 17 201 12.9 32.2 0.00 0.00 0.00 74 1010.0
20260506160705 17 200 12.9 32.2 0.00 0.00 0.00 74 1009.9
20260506160605 17 200 12.9 33.8 0.00 0.00 0.00 74 1009.9
20260506160504 17 200 12.9 33.8 0.00 0.00 0.00 74 1009.9
20260506160405 17 200 12.9 33.8 0.00 0.00 0.00 74 1009.8
20260506160305 17 202 12.9 33.8 0.00 0.00 0.00 74 1009.9
20260506160205 17 202 12.9 33.8 0.00 0.00 0.00 74 1009.9
20260506160112 17 148 8.0 32.2 0.00 0.00 0.00 74 1010.2
20260506160105 17 201 12.9 33.8 0.00 0.00 0.00 74 1009.9
20260506155504 17 197 11.3 32.2 0.00 0.00 0.00 75 1010.0
20260506155405 17 197 11.3 25.7 0.00 0.00 0.00 75 1010.1
20260506155306 17 196 11.3 25.7 0.00 0.00 0.00 75 1010.1
20260506155205 17 196 11.3 29.0 0.00 0.00 0.00 75 1010.1
20260506155105 17 197 11.3 29.0 0.00 0.00 0.00 75 1010.2
20260506155005 17 198 12.9 29.0 0.00 0.00 0.00 75 1010.2
20260506154905 17 199 14.5 32.2 0.00 0.00 0.00 75 1010.4
20260506154805 17 199 14.5 32.2 0.00 0.00 0.00 75 1010.2
20260506154705 17 200 14.5 33.8 0.00 0.00 0.00 75 1010.3
20260506154617 17 220 12.9 33.8 0.00 0.00 0.00 75 1010.5
20260506154604 17 201 12.9 33.8 0.00 0.00 0.00 75 1010.1
20260506154505 17 201 12.9 33.8 0.00 0.00 0.00 75 1010.3
20260506154404 17 201 12.9 33.8 0.00 0.00 0.00 75 1010.3
20260506154305 17 205 12.9 33.8 0.00 0.00 0.00 75 1010.3
20260506154205 17 206 11.3 33.8 0.00 0.00 0.00 75 1010.4
20260506154104 17 204 12.9 33.8 0.00 0.00 0.00 75 1010.4
20260506154005 17 201 11.3 33.8 0.00 0.00 0.00 75 1010.4
20260506153905 17 201 11.3 33.8 0.00 0.00 0.00 75 1010.5
20260506153804 17 202 11.3 33.8 0.00 0.00 0.00 75 1010.4
20260506153704 17 200 11.3 29.0 0.00 0.00 0.00 75 1010.5
20260506153605 17 199 11.3 29.0 0.00 0.00 0.00 75 1010.4
20260506153505 17 200 11.3 32.2 0.00 0.00 0.00 75 1010.4
20260506153405 17 201 11.3 32.2 0.00 0.00 0.00 75 1010.4
20260506153305 17 198 11.3 32.2 0.00 0.00 0.00 75 1010.3
20260506153205 17 196 11.3 32.2 0.00 0.00 0.00 75 1010.4
20260506153137 17 182 11.3 32.2 0.00 0.00 0.00 75 1010.6
20260506153105 17 196 11.3 32.2 0.00 0.00 0.00 75 1010.4
20260506153005 17 199 11.3 32.2 0.00 0.00 0.00 76 1010.4
20260506152905 17 197 9.7 32.2 0.00 0.00 0.00 76 1010.4
20260506152805 17 197 9.7 32.2 0.00 0.00 0.00 76 1010.3
20260506152705 17 199 9.7 32.2 0.00 0.00 0.00 76 1010.3
20260506152605 17 200 9.7 32.2 0.00 0.00 0.00 76 1010.2
20260506152505 17 201 9.7 29.0 0.00 0.00 0.00 76 1010.3
20260506152405 17 201 9.7 29.0 0.00 0.00 0.00 76 1010.2
20260506152306 17 204 9.7 25.7 0.00 0.00 0.00 76 1010.2
20260506152205 17 205 11.3 27.4 0.00 0.00 0.00 76 1010.2
20260506152105 17 207 11.3 27.4 0.00 0.00 0.00 76 1010.3
20260506152005 17 206 11.3 30.6 0.00 0.00 0.00 76 1010.3
20260506151905 17 210 12.9 30.6 0.00 0.00 0.00 76 1010.2
20260506151805 17 210 12.9 30.6 0.00 0.00 0.00 76 1010.1
20260506151705 17 208 14.5 30.6 0.00 0.00 0.00 75 1010.2
20260506151614 16 212 9.7 30.6 0.00 0.00 0.00 76 1010.5
20260506151605 17 206 14.5 37.0 0.00 0.00 0.00 76 1010.3
20260506151505 17 207 14.5 37.0 0.00 0.00 0.00 75 1010.2
20260506151405 17 205 16.1 37.0 0.00 0.00 0.00 75 1010.3
20260506151304 17 203 16.1 37.0 0.00 0.00 0.00 75 1010.2
20260506151205 17 204 16.1 37.0 0.00 0.00 0.00 75 1010.3
20260506151105 17 203 16.1 38.6 0.00 0.00 0.00 75 1010.2
20260506151005 17 204 16.1 38.6 0.00 0.00 0.00 75 1010.2
20260506150905 17 202 17.7 38.6 0.00 0.00 0.00 75 1010.1
20260506150804 17 199 16.1 41.8 0.00 0.00 0.00 75 1010.2
20260506150704 17 197 14.5 41.8 0.00 0.00 0.00 75 1010.1
20260506150605 17 196 14.5 41.8 0.00 0.00 0.00 75 1010.1
20260506150505 17 195 14.5 41.8 0.00 0.00 0.00 75 1010.1
20260506150405 17 197 14.5 41.8 0.00 0.00 0.00 75 1010.2
20260506150305 17 200 14.5 41.8 0.00 0.00 0.00 75 1010.1
20260506150205 17 202 14.5 41.8 0.00 0.00 0.00 75 1010.1
20260506150106 17 165 16.1 43.5 0.00 0.00 0.00 75 1010.3
20260506150104 17 201 14.5 41.8 0.00 0.00 0.00 75 1010.1
20260506150005 17 200 14.5 41.8 0.00 0.00 0.00 75 1010.2
20260506145905 17 200 16.1 48.3 0.00 0.00 0.00 75 1010.4
20260506145804 17 201 17.7 48.3 0.00 0.00 0.00 75 1010.4
20260506145705 17 203 19.3 48.3 0.00 0.00 0.00 75 1010.4
20260506145604 17 203 19.3 48.3 0.00 0.00 0.00 75 1010.4
20260506145504 17 202 19.3 48.3 0.00 0.00 0.00 75 1010.5
20260506145405 17 201 19.3 48.3 0.00 0.00 0.00 74 1010.4
20260506145306 17 199 19.3 48.3 0.00 0.00 0.00 75 1010.3
20260506145205 17 197 19.3 48.3 0.00 0.00 0.00 75 1010.4
20260506145105 17 198 19.3 48.3 0.00 0.00 0.00 75 1010.2
20260506145005 17 198 17.7 48.3 0.00 0.00 0.00 74 1010.3
20260506144905 17 199 16.1 45.1 0.00 0.00 0.00 75 1010.2
20260506144805 17 199 16.1 45.1 0.00 0.00 0.00 75 1010.3
20260506144705 17 199 14.5 45.1 0.00 0.00 0.00 75 1010.2
20260506144614 17 154 16.1 40.2 0.00 0.00 0.00 75 1010.5
20260506144605 17 199 14.5 40.2 0.00 0.00 0.00 75 1010.3
20260506144504 17 201 14.5 40.2 0.00 0.00 0.00 75 1010.3
20260506144405 17 201 14.5 40.2 0.00 0.00 0.00 75 1010.1
20260506144305 17 205 14.5 32.2 0.00 0.00 0.00 75 1010.2
20260506144205 17 205 14.5 32.2 0.00 0.00 0.00 75 1010.2
20260506144105 17 206 14.5 38.6 0.00 0.00 0.00 75 1010.1
20260506144004 17 208 16.1 38.6 0.00 0.00 0.00 75 1010.2
20260506143905 17 209 16.1 38.6 0.00 0.00 0.00 75 1010.2
20260506143805 17 209 16.1 38.6 0.00 0.00 0.00 75 1010.2
20260506143705 17 209 16.1 38.6 0.00 0.00 0.00 75 1010.2
20260506143604 17 211 16.1 38.6 0.00 0.00 0.00 76 1010.3
20260506143505 17 210 16.1 38.6 0.00 0.00 0.00 76 1010.3
20260506143405 17 210 16.1 38.6 0.00 0.00 0.00 76 1010.2
20260506143306 17 209 16.1 38.6 0.00 0.00 0.00 76 1010.2
20260506143205 17 209 16.1 38.6 0.00 0.00 0.00 76 1010.4
20260506143105 17 217 17.7 37.0 0.00 0.00 0.00 76 1010.6
20260506143005 17 205 16.1 40.2 0.00 0.00 0.00 76 1010.2
20260506142905 17 205 16.1 40.2 0.00 0.00 0.00 76 1010.3
20260506142805 17 205 16.1 40.2 0.00 0.00 0.00 76 1010.3
20260506142705 17 204 16.1 40.2 0.00 0.00 0.00 76 1010.2
20260506142605 17 201 16.1 40.2 0.00 0.00 0.00 76 1010.3
20260506142504 17 201 16.1 40.2 0.00 0.00 0.00 76 1010.3
20260506142405 17 201 16.1 40.2 0.00 0.00 0.00 76 1010.3
20260506142306 17 204 16.1 40.2 0.00 0.00 0.00 76 1010.4
20260506141612 16 198 14.5 41.8 0.00 0.00 0.00 76 1010.8
20260506141604 17 210 16.1 43.5 0.00 0.00 0.00 76 1010.6
20260506141504 17 210 17.7 43.5 0.00 0.00 0.00 76 1010.7
20260506141404 17 209 17.7 43.5 0.00 0.00 0.00 76 1010.6
20260506141305 17 206 16.1 43.5 0.00 0.00 0.00 76 1010.7
20260506141204 17 207 16.1 43.5 0.00 0.00 0.00 76 1010.7
20260506141105 16 208 16.1 43.5 0.00 0.00 0.00 76 1010.7
20260506141005 16 207 16.1 37.0 0.00 0.00 0.00 76 1010.6
20260506140905 16 206 16.1 37.0 0.00 0.00 0.00 76 1010.6
20260506140805 16 208 16.1 37.0 0.00 0.00 0.00 76 1010.6
20260506140705 16 208 16.1 37.0 0.00 0.00 0.00 76 1010.7
20260506140604 16 210 16.1 37.0 0.00 0.00 0.00 76 1010.6
20260506140505 16 210 16.1 37.0 0.00 0.00 0.00 76 1010.7
20260506140405 16 212 16.1 38.6 0.00 0.00 0.00 76 1010.7
20260506140305 16 214 16.1 38.6 0.00 0.00 0.00 76 1010.7
20260506140204 17 214 16.1 38.6 0.00 0.00 0.00 76 1010.7
20260506140105 17 213 17.7 38.6 0.00 0.00 0.00 76 1010.7
20260506140010 16 116 17.7 37.0 0.00 0.00 0.00 76 1010.8
20260506140005 17 212 17.7 43.5 0.00 0.00 0.00 76 1010.6
20260506135905 17 214 17.7 54.7 0.00 0.00 0.00 76 1010.6
20260506135805 17 214 17.7 54.7 0.00 0.00 0.00 76 1010.5
20260506135704 17 216 17.7 54.7 0.00 0.00 0.00 76 1010.5
20260506135605 17 215 17.7 54.7 0.00 0.00 0.00 76 1010.4
20260506135505 17 214 17.7 54.7 0.00 0.00 0.00 76 1010.7
20260506135404 17 214 17.7 54.7 0.00 0.00 0.00 76 1010.6
20260506135306 17 213 17.7 54.7 0.00 0.00 0.00 76 1010.5
20260506135204 17 212 17.7 54.7 0.00 0.00 0.00 75 1010.6
20260506135105 17 212 16.1 54.7 0.00 0.00 0.00 75 1010.5
20260506135005 17 212 16.1 54.7 0.00 0.00 0.00 75 1010.6
20260506134905 17 210 16.1 41.8 0.00 0.00 0.00 76 1010.5
20260506134804 17 209 16.1 45.1 0.00 0.00 0.00 76 1010.4
20260506134705 17 207 14.5 45.1 0.00 0.00 0.00 75 1010.5
20260506134610 16 244 16.1 43.5 0.00 0.00 0.00 76 1010.7
20260506134605 17 204 16.1 45.1 0.00 0.00 0.00 76 1010.4
20260506134505 17 204 14.5 45.1 0.00 0.00 0.00 76 1010.5
20260506134405 17 204 14.5 45.1 0.00 0.00 0.00 76 1010.5
20260506134305 17 205 14.5 45.1 0.00 0.00 0.00 76 1010.4
20260506134205 17 207 14.5 45.1 0.00 0.00 0.00 76 1010.5
20260506134105 17 206 14.5 45.1 0.00 0.00 0.00 76 1010.4
20260506134005 17 205 14.5 45.1 0.00 0.00 0.00 76 1010.5
20260506133905 17 204 14.5 45.1 0.00 0.00 0.00 76 1010.4
20260506133805 17 201 14.5 37.0 0.00 0.00 0.00 76 1010.4
20260506133705 17 199 14.5 37.0 0.00 0.00 0.00 76 1010.4
20260506133605 17 204 14.5 37.0 0.00 0.00 0.00 76 1010.4
20260506133505 17 204 12.9 37.0 0.00 0.00 0.00 76 1010.4
20260506133405 17 204 12.9 37.0 0.00 0.00 0.00 76 1010.4
20260506133305 17 202 12.9 37.0 0.00 0.00 0.00 76 1010.4
20260506133205 17 200 12.9 37.0 0.00 0.00 0.00 76 1010.4
20260506133119 16 190 12.9 35.4 0.00 0.00 0.00 76 1010.6
20260506133105 17 203 12.9 30.6 0.00 0.00 0.00 76 1010.3
20260506133005 17 204 14.5 30.6 0.00 0.00 0.00 76 1010.3
20260506132905 17 205 14.5 30.6 0.00 0.00 0.00 76 1010.2
20260506132804 17 208 12.9 33.8 0.00 0.00 0.00 76 1010.3
20260506132705 17 210 12.9 33.8 0.00 0.00 0.00 76 1010.4
20260506132605 17 207 12.9 33.8 0.00 0.00 0.00 76 1010.3
20260506132505 17 209 14.5 33.8 0.00 0.00 0.00 76 1010.4
20260506132405 17 209 14.5 33.8 0.00 0.00 0.00 76 1010.3
20260506132307 17 212 14.5 33.8 0.00 0.00 0.00 76 1010.4
20260506132204 17 211 14.5 43.5 0.00 0.00 0.00 76 1010.4
20260506132105 17 208 14.5 43.5 0.00 0.00 0.00 76 1010.5
20260506132005 17 207 14.5 43.5 0.00 0.00 0.00 76 1010.4
20260506131904 17 207 16.1 43.5 0.00 0.00 0.00 76 1010.4
20260506131610 16 188 12.9 43.5 0.00 0.00 0.00 76 1010.6
20260506131205 17 203 16.1 41.8 0.00 0.00 0.00 76 1010.2
20260506131105 17 202 14.5 35.4 0.00 0.00 0.00 76 1010.3
20260506131005 17 204 16.1 35.4 0.00 0.00 0.00 76 1010.1
20260506130905 17 205 14.5 35.4 0.00 0.00 0.00 77 1010.2
20260506130805 16 202 16.1 35.4 0.00 0.00 0.00 77 1010.3
20260506130705 16 200 16.1 41.8 0.00 0.00 0.00 77 1010.3
20260506130605 16 199 16.1 41.8 0.00 0.00 0.00 77 1010.3
20260506130505 16 201 17.7 41.8 0.00 0.00 0.00 77 1010.3
20260506130405 16 200 17.7 41.8 0.00 0.00 0.00 77 1010.3
20260506130305 16 200 17.7 46.7 0.00 0.00 0.00 77 1010.4
20260506130205 16 201 17.7 46.7 0.00 0.00 0.00 77 1010.4
20260506130121 16 231 16.1 46.7 0.00 0.00 0.00 77 1010.7
20260506130105 16 203 17.7 46.7 0.00 0.00 0.00 77 1010.6
20260506130005 16 203 17.7 46.7 0.00 0.00 0.00 77 1010.6
20260506125904 16 202 17.7 46.7 0.00 0.00 0.00 77 1010.6
20260506125805 16 204 17.7 46.7 0.00 0.00 0.00 77 1010.7
20260506125705 16 207 17.7 46.7 0.00 0.00 0.00 77 1010.6
20260506125604 16 207 17.7 46.7 0.00 0.00 0.00 77 1010.5
20260506125506 16 206 17.7 46.7 0.00 0.00 0.00 77 1010.6
20260506125405 16 206 17.7 46.7 0.00 0.00 0.00 77 1010.6
20260506125306 16 207 17.7 41.8 0.00 0.00 0.00 77 1010.6
20260506125205 16 207 17.7 41.8 0.00 0.00 0.00 77 1010.7
20260506125105 16 206 17.7 41.8 0.00 0.00 0.00 77 1010.8
20260506125005 16 206 16.1 41.8 0.00 0.00 0.00 77 1010.8
20260506124905 16 206 16.1 41.8 0.00 0.00 0.00 77 1010.7
20260506124804 16 209 16.1 41.8 0.00 0.00 0.00 78 1010.7
20260506124705 16 206 14.5 40.2 0.00 0.00 0.00 78 1010.7
20260506124612 16 253 11.3 38.6 0.00 0.00 0.00 78 1011.0
20260506124605 16 207 14.5 40.2 0.00 0.00 0.00 78 1010.7
20260506124504 16 209 16.1 40.2 0.00 0.00 0.00 78 1010.7
20260506124404 16 213 14.5 40.2 0.00 0.00 0.00 78 1010.8
20260506124305 16 214 14.5 40.2 0.00 0.00 0.00 78 1010.6
20260506124204 16 216 14.5 40.2 0.00 0.00 0.00 78 1010.8
20260506124105 16 216 16.1 40.2 0.00 0.00 0.00 79 1010.7
20260506124005 16 216 16.1 43.5 0.00 0.00 0.00 78 1011.0
20260506123905 16 217 16.1 43.5 0.00 0.00 0.00 78 1010.9
20260506123805 16 213 14.5 43.5 0.00 0.00 0.00 78 1010.9
20260506123705 16 213 16.1 43.5 0.00 0.00 0.00 78 1010.9
20260506123605 16 215 16.1 43.5 0.00 0.00 0.00 78 1011.0
20260506123505 16 215 16.1 43.5 0.00 0.00 0.00 78 1010.9
20260506123008 16 194 16.1 43.5 0.00 0.00 0.00 79 1011.2
20260506122404 16 208 16.1 43.5 0.00 0.00 0.00 79 1010.7
20260506122306 16 208 16.1 38.6 0.00 0.00 0.00 79 1010.8
20260506122204 16 209 14.5 38.6 0.00 0.00 0.00 79 1010.8
20260506122105 16 210 14.5 38.6 0.00 0.00 0.00 79 1010.8
20260506122004 16 213 14.5 38.6 0.00 0.00 0.00 80 1010.7
20260506121905 16 212 14.5 38.6 0.00 0.00 0.00 80 1010.8
20260506121805 16 215 14.5 38.6 0.00 0.00 0.00 80 1010.9
20260506121705 16 212 14.5 38.6 0.00 0.00 0.00 80 1010.8
20260506121615 15 225 16.1 40.2 0.00 0.00 0.00 80 1011.0
20260506121604 16 214 14.5 38.6 0.00 0.00 0.00 80 1010.8
20260506121505 16 214 12.9 38.6 0.00 0.00 0.00 80 1010.9
20260506121405 16 216 14.5 38.6 0.00 0.00 0.00 80 1010.9
20260506121304 16 216 14.5 38.6 0.00 0.00 0.00 80 1010.9
20260506121204 15 214 14.5 38.6 0.00 0.00 0.00 80 1010.8
20260506121105 15 213 14.5 38.6 0.00 0.00 0.00 80 1010.8
20260506121004 15 214 14.5 38.6 0.00 0.00 0.00 80 1010.8
20260506120905 15 211 14.5 38.6 0.00 0.00 0.00 80 1010.9
20260506120304 15 208 16.1 33.8 0.00 0.00 0.00 81 1010.7
20260506120205 15 209 14.5 33.8 0.00 0.00 0.00 81 1010.8
20260506120105 15 210 16.1 33.8 0.00 0.00 0.00 81 1010.7
20260506120010 15 223 16.1 33.8 0.00 0.00 0.00 81 1010.9
20260506120005 15 209 14.5 33.8 0.00 0.00 0.00 81 1010.7
20260506115905 15 211 14.5 33.8 0.00 0.00 0.00 81 1010.6
20260506115307 15 213 12.9 33.8 0.00 0.00 0.00 81 1010.7
20260506115205 15 214 12.9 33.8 0.00 0.00 0.00 81 1010.5
20260506115105 15 212 12.9 33.8 0.00 0.00 0.00 81 1010.6
20260506115005 15 212 12.9 33.8 0.00 0.00 0.00 81 1010.6
20260506114905 15 210 12.9 33.8 0.00 0.00 0.00 81 1010.6
20260506114805 15 212 14.5 38.6 0.00 0.00 0.00 82 1010.6
20260506114705 15 213 14.5 38.6 0.00 0.00 0.00 82 1010.7
20260506114608 15 246 8.0 40.2 0.00 0.00 0.00 82 1010.9
20260506114604 15 211 14.5 38.6 0.00 0.00 0.00 82 1010.7
20260506114504 15 213 16.1 38.6 0.00 0.00 0.00 82 1010.7
20260506114405 15 211 16.1 38.6 0.00 0.00 0.00 82 1010.8
20260506114305 15 210 16.1 38.6 0.00 0.00 0.00 82 1010.7
20260506114205 15 207 16.1 38.6 0.00 0.00 0.00 82 1010.6
20260506114105 15 207 16.1 38.6 0.00 0.00 0.00 82 1010.7
20260506114005 15 205 16.1 38.6 0.00 0.00 0.00 82 1010.8
20260506113905 15 205 16.1 38.6 0.00 0.00 0.00 82 1010.7
20260506113805 15 201 14.5 37.0 0.00 0.00 0.00 82 1010.8
20260506113705 15 201 14.5 37.0 0.00 0.00 0.00 82 1010.6
20260506113605 15 201 14.5 37.0 0.00 0.00 0.00 82 1010.7
20260506113505 15 198 14.5 37.0 0.00 0.00 0.00 82 1010.7
20260506113404 15 198 14.5 37.0 0.00 0.00 0.00 82 1010.7
20260506113305 15 196 14.5 41.8 0.00 0.00 0.00 82 1010.8
20260506113205 15 196 14.5 41.8 0.00 0.00 0.00 82 1010.8
20260506113120 14 176 12.9 41.8 0.00 0.00 0.00 82 1011.0
20260506113105 15 197 14.5 41.8 0.00 0.00 0.00 82 1010.8
20260506113005 15 197 14.5 41.8 0.00 0.00 0.00 82 1010.7
20260506112904 15 201 14.5 41.8 0.00 0.00 0.00 82 1010.7
20260506112805 15 203 14.5 41.8 0.00 0.00 0.00 82 1010.8
20260506112705 15 203 14.5 41.8 0.00 0.00 0.00 82 1010.7
20260506112605 15 202 16.1 41.8 0.00 0.00 0.00 82 1010.7
20260506112505 15 202 16.1 41.8 0.00 0.00 0.00 82 1010.8
20260506112404 15 202 16.1 41.8 0.00 0.00 0.00 82 1010.8
20260506112306 15 203 16.1 35.4 0.00 0.00 0.00 82 1010.8
20260506112205 15 206 16.1 35.4 0.00 0.00 0.00 82 1010.7
20260506112104 15 207 16.1 35.4 0.00 0.00 0.00 82 1010.9
20260506112005 15 206 14.5 35.4 0.00 0.00 0.00 82 1010.7
20260506111904 14 204 14.5 35.4 0.00 0.00 0.00 82 1010.7
20260506111805 14 203 14.5 35.4 0.00 0.00 0.00 82 1010.8
20260506111705 14 202 14.5 35.4 0.00 0.00 0.00 82 1010.6
20260506111607 14 196 19.3 35.4 0.00 0.00 0.00 82 1010.9
20260506111604 14 202 12.9 35.4 0.00 0.00 0.00 82 1010.7
20260506111505 14 203 12.9 35.4 0.00 0.00 0.00 83 1010.8
20260506111405 14 202 11.3 33.8 0.00 0.00 0.00 83 1010.7
20260506111304 14 202 11.3 30.6 0.00 0.00 0.00 83 1010.7
20260506111205 14 200 9.7 27.4 0.00 0.00 0.00 83 1010.7
20260506111105 14 199 9.7 27.4 0.00 0.00 0.00 83 1010.7
20260506111004 14 199 9.7 27.4 0.00 0.00 0.00 83 1010.8
20260506110905 14 196 9.7 27.4 0.00 0.00 0.00 83 1010.6
20260506110805 14 196 9.7 27.4 0.00 0.00 0.00 83 1010.7
20260506110704 14 197 11.3 27.4 0.00 0.00 0.00 83 1010.8
20260506110605 14 196 11.3 27.4 0.00 0.00 0.00 83 1010.8
20260506110505 14 196 11.3 27.4 0.00 0.00 0.00 83 1010.7
20260506110404 14 196 11.3 27.4 0.00 0.00 0.00 83 1010.7
20260506110305 14 196 12.9 27.4 0.00 0.00 0.00 83 1010.7
20260506110204 14 196 12.9 27.4 0.00 0.00 0.00 83 1010.8
20260506110119 14 219 6.4 30.6 0.00 0.00 0.00 83 1011.0
20260506110105 14 198 12.9 27.4 0.00 0.00 0.00 83 1010.8
20260506110005 14 198 14.5 27.4 0.00 0.00 0.00 83 1010.7
20260506105405 14 205 12.9 37.0 0.00 0.00 0.00 84 1010.6
20260506105305 14 205 12.9 37.0 0.00 0.00 0.00 84 1010.6
20260506105204 14 205 12.9 37.0 0.00 0.00 0.00 84 1010.5
20260506105105 14 201 11.3 37.0 0.00 0.00 0.00 84 1010.5
20260506105004 14 202 11.3 37.0 0.00 0.00 0.00 84 1010.6
20260506104905 14 199 11.3 37.0 0.00 0.00 0.00 84 1010.6
20260506104805 14 199 11.3 37.0 0.00 0.00 0.00 84 1010.6
20260506104704 14 200 11.3 37.0 0.00 0.00 0.00 84 1010.6
20260506104610 13 223 12.9 37.0 0.00 0.00 0.00 84 1010.8
20260506104605 14 199 11.3 37.0 0.00 0.00 0.00 84 1010.6
20260506104504 14 201 9.7 37.0 0.00 0.00 0.00 84 1010.6
20260506104405 14 200 11.3 24.1 0.00 0.00 0.00 84 1010.6
20260506104305 14 199 11.3 29.0 0.00 0.00 0.00 84 1010.7
20260506104205 14 200 11.3 29.0 0.00 0.00 0.00 84 1010.7
20260506104104 14 200 11.3 29.0 0.00 0.00 0.00 84 1010.7
20260506104005 14 199 12.9 29.0 0.00 0.00 0.00 84 1010.6
20260506103905 14 198 12.9 29.0 0.00 0.00 0.00 84 1010.6
20260506103204 14 194 14.5 43.5 0.00 0.00 0.00 84 1010.7
20260506103117 13 117 12.9 38.6 0.00 0.00 0.00 84 1010.9
20260506103105 13 194 14.5 43.5 0.00 0.00 0.00 84 1010.8
20260506103004 13 193 14.5 43.5 0.00 0.00 0.00 84 1010.7
20260506102904 13 195 12.9 43.5 0.00 0.00 0.00 84 1010.8
20260506102805 13 194 12.9 43.5 0.00 0.00 0.00 84 1010.8
20260506102704 13 197 12.9 43.5 0.00 0.00 0.00 84 1010.8
20260506102605 13 197 12.9 43.5 0.00 0.00 0.00 84 1010.8
20260506102504 13 199 12.9 43.5 0.00 0.00 0.00 84 1010.8
20260506102405 13 201 12.9 43.5 0.00 0.00 0.00 84 1010.7
20260506102306 13 201 11.3 30.6 0.00 0.00 0.00 84 1010.7
20260506102204 13 199 11.3 30.6 0.00 0.00 0.00 84 1010.7
20260506102105 13 200 12.9 33.8 0.00 0.00 0.00 84 1010.8
20260506102005 14 201 12.9 35.4 0.00 0.00 0.00 84 1010.8
20260506101904 13 201 12.9 35.4 0.00 0.00 0.00 84 1010.7
20260506101805 13 201 12.9 35.4 0.00 0.00 0.00 84 1010.6
20260506101704 13 201 12.9 35.4 0.00 0.00 0.00 84 1010.8
20260506101637 13 176 8.0 33.8 0.00 0.00 0.00 84 1010.9
20260506101605 13 201 12.9 35.4 0.00 0.00 0.00 84 1010.7
20260506101505 13 201 12.9 35.4 0.00 0.00 0.00 84 1010.7
20260506101404 13 199 12.9 35.4 0.00 0.00 0.00 84 1010.6
20260506101305 13 199 14.5 35.4 0.00 0.00 0.00 84 1010.7
20260506101205 13 199 14.5 35.4 0.00 0.00 0.00 84 1010.7
20260506101104 13 199 14.5 35.4 0.00 0.00 0.00 84 1010.7
20260506101005 13 199 12.9 33.8 0.00 0.00 0.00 84 1010.7
20260506100904 14 198 12.9 33.8 0.00 0.00 0.00 84 1010.6
20260506100804 13 197 12.9 29.0 0.00 0.00 0.00 83 1010.7
20260506100705 14 195 12.9 29.0 0.00 0.00 0.00 84 1010.4
20260506100604 14 193 12.9 29.0 0.00 0.00 0.00 83 1010.6
20260506100504 14 192 12.9 29.0 0.00 0.00 0.00 83 1010.6
20260506100404 13 193 12.9 29.0 0.00 0.00 0.00 83 1010.5
20260506100304 14 193 12.9 29.0 0.00 0.00 0.00 84 1010.6
20260506100205 14 192 12.9 27.4 0.00 0.00 0.00 84 1010.6
20260506100117 13 183 11.3 27.4 0.00 0.00 0.00 84 1010.8
20260506095604 14 195 14.5 38.6 0.00 0.00 0.00 84 1010.6
20260506095505 14 196 14.5 38.6 0.00 0.00 0.00 84 1010.7
20260506095404 14 196 14.5 38.6 0.00 0.00 0.00 84 1010.6
20260506095306 14 197 16.1 38.6 0.00 0.00 0.00 84 1010.6
20260506095205 14 196 14.5 38.6 0.00 0.00 0.00 84 1010.5
20260506095105 14 196 16.1 38.6 0.00 0.00 0.00 84 1010.6
20260506095004 14 194 16.1 38.6 0.00 0.00 0.00 84 1010.6
20260506094905 14 194 14.5 38.6 0.00 0.00 0.00 84 1010.6
20260506094804 14 196 16.1 38.6 0.00 0.00 0.00 84 1010.5
20260506094705 14 198 16.1 38.6 0.00 0.00 0.00 84 1010.5
20260506094608 13 201 17.7 38.6 0.00 0.00 0.00 84 1010.7
20260506094605 14 196 16.1 38.6 0.00 0.00 0.00 84 1010.5
20260506094504 14 196 16.1 38.6 0.00 0.00 0.00 84 1010.6
20260506094404 14 197 14.5 38.6 0.00 0.00 0.00 84 1010.5
20260506094305 14 195 14.5 38.6 0.00 0.00 0.00 84 1010.5
20260506094205 14 195 14.5 38.6 0.00 0.00 0.00 84 1010.6
20260506094105 14 197 14.5 38.6 0.00 0.00 0.00 84 1010.5
20260506094004 14 198 14.5 38.6 0.00 0.00 0.00 84 1010.7
20260506093904 14 199 14.5 41.8 0.00 0.00 0.00 84 1010.5
20260506093805 14 198 14.5 41.8 0.00 0.00 0.00 84 1010.5
20260506093704 14 196 14.5 41.8 0.00 0.00 0.00 84 1010.5
20260506093605 14 197 14.5 41.8 0.00 0.00 0.00 84 1010.5
20260506093504 14 197 14.5 41.8 0.00 0.00 0.00 83 1010.6
20260506093405 14 196 14.5 41.8 0.00 0.00 0.00 84 1010.5
20260506093305 14 197 14.5 41.8 0.00 0.00 0.00 83 1010.5
20260506093204 14 199 14.5 41.8 0.00 0.00 0.00 84 1010.6
20260506093114 13 183 16.1 37.0 0.00 0.00 0.00 83 1010.7
20260506093105 14 198 14.5 41.8 0.00 0.00 0.00 83 1010.5
20260506093005 14 199 12.9 41.8 0.00 0.00 0.00 83 1010.5
20260506092904 14 200 12.9 32.2 0.00 0.00 0.00 83 1010.6
20260506092805 14 199 14.5 32.2 0.00 0.00 0.00 83 1010.6
20260506092704 14 197 12.9 32.2 0.00 0.00 0.00 83 1010.6
20260506092605 14 197 12.9 32.2 0.00 0.00 0.00 83 1010.7
20260506092504 14 198 12.9 32.2 0.00 0.00 0.00 83 1010.7
20260506092405 14 199 12.9 32.2 0.00 0.00 0.00 83 1010.6
20260506092306 14 200 12.9 32.2 0.00 0.00 0.00 83 1010.6
20260506092204 14 200 12.9 32.2 0.00 0.00 0.00 83 1010.6
20260506092105 14 200 14.5 32.2 0.00 0.00 0.00 83 1010.7
20260506092004 14 199 14.5 37.0 0.00 0.00 0.00 83 1010.7
20260506091904 14 197 14.5 37.0 0.00 0.00 0.00 83 1010.7
20260506091805 14 199 14.5 37.0 0.00 0.00 0.00 83 1010.7
20260506091704 14 200 14.5 37.0 0.00 0.00 0.00 83 1010.8
20260506091605 14 199 14.5 37.0 0.00 0.00 0.00 83 1010.7
20260506091506 13 166 12.9 38.6 0.00 0.00 0.00 83 1011.0
20260506091504 14 199 14.5 37.0 0.00 0.00 0.00 83 1010.7
20260506091405 14 199 16.1 37.0 0.00 0.00 0.00 83 1010.7
20260506091304 14 199 14.5 37.0 0.00 0.00 0.00 83 1010.8
20260506091205 14 198 14.5 37.0 0.00 0.00 0.00 83 1010.6
20260506091104 14 200 12.9 37.0 0.00 0.00 0.00 83 1010.7
20260506091004 14 201 12.9 32.2 0.00 0.00 0.00 83 1010.7
20260506090905 14 201 12.9 32.2 0.00 0.00 0.00 83 1010.8
20260506090804 14 201 12.9 32.2 0.00 0.00 0.00 83 1010.7
20260506090705 14 201 12.9 32.2 0.00 0.00 0.00 83 1010.7
20260506090112 14 196 8.0 35.4 0.00 0.00 0.00 83 1010.9
20260506090005 14 198 14.5 37.0 0.00 0.00 0.00 83 1010.7
20260506085904 14 200 14.5 37.0 0.00 0.00 0.00 83 1010.8
20260506085805 14 199 12.9 37.0 0.00 0.00 0.00 83 1010.7
20260506085704 14 199 12.9 37.0 0.00 0.00 0.00 83 1010.7
20260506085605 14 201 14.5 37.0 0.00 0.00 0.00 83 1010.8
20260506085504 14 201 12.9 37.0 0.00 0.00 0.00 83 1010.7
20260506085405 14 201 12.9 37.0 0.00 0.00 0.00 83 1010.8
20260506085306 14 200 12.9 37.0 0.00 0.00 0.00 83 1010.7
20260506085204 14 200 12.9 27.4 0.00 0.00 0.00 83 1010.8
20260506085105 14 198 12.9 27.4 0.00 0.00 0.00 83 1010.9
20260506085004 14 198 12.9 27.4 0.00 0.00 0.00 83 1010.9
20260506084904 14 197 12.9 27.4 0.00 0.00 0.00 83 1010.9
20260506084805 14 196 12.9 27.4 0.00 0.00 0.00 83 1010.9
20260506084704 14 197 12.9 27.4 0.00 0.00 0.00 83 1010.9
20260506084634 14 196 9.7 29.0 0.00 0.00 0.00 83 1011.2
20260506084605 14 196 12.9 27.4 0.00 0.00 0.00 83 1011.0
20260506084505 14 195 12.9 27.4 0.00 0.00 0.00 83 1010.9
20260506084404 14 196 12.9 27.4 0.00 0.00 0.00 83 1011.0
20260506084305 14 194 12.9 27.4 0.00 0.00 0.00 83 1010.9
20260506084204 14 193 12.9 27.4 0.00 0.00 0.00 82 1010.9
20260506084105 14 196 14.5 27.4 0.00 0.00 0.00 82 1010.9
20260506084004 14 197 14.5 27.4 0.00 0.00 0.00 82 1010.9
20260506083905 14 196 14.5 32.2 0.00 0.00 0.00 82 1010.9
20260506083804 14 199 14.5 38.6 0.00 0.00 0.00 82 1010.8
20260506083704 14 198 14.5 38.6 0.00 0.00 0.00 82 1011.0
20260506083605 14 201 14.5 38.6 0.00 0.00 0.00 82 1011.0
20260506083504 14 200 14.5 38.6 0.00 0.00 0.00 82 1011.0
20260506083405 14 202 14.5 38.6 0.00 0.00 0.00 82 1011.1
20260506083305 14 201 14.5 38.6 0.00 0.00 0.00 82 1011.1
20260506083204 14 202 14.5 38.6 0.00 0.00 0.00 82 1011.1
20260506083116 14 210 14.5 40.2 0.00 0.00 0.00 82 1011.3
20260506083105 14 198 14.5 38.6 0.00 0.00 0.00 82 1011.1
20260506083005 14 196 12.9 38.6 0.00 0.00 0.00 82 1011.1
20260506082904 14 196 12.9 38.6 0.00 0.00 0.00 82 1011.0
20260506082805 14 194 12.9 30.6 0.00 0.00 0.00 82 1011.0
20260506082705 14 193 11.3 30.6 0.00 0.00 0.00 82 1011.0
20260506082604 14 189 12.9 30.6 0.00 0.00 0.00 82 1011.1
20260506082505 14 189 12.9 35.4 0.00 0.00 0.00 82 1011.0
20260506082405 14 188 12.9 35.4 0.00 0.00 0.00 82 1011.1
20260506082305 14 188 12.9 35.4 0.00 0.00 0.00 82 1011.0
20260506082205 14 189 14.5 35.4 0.00 0.00 0.00 82 1011.1
20260506082105 14 190 12.9 35.4 0.00 0.00 0.00 82 1011.1
20260506082004 14 192 12.9 35.4 0.00 0.00 0.00 82 1011.1
20260506081905 14 191 14.5 35.4 0.00 0.00 0.00 82 1011.0
20260506081804 14 194 14.5 35.4 0.00 0.00 0.00 82 1011.1
20260506081705 14 195 14.5 35.4 0.00 0.00 0.00 82 1011.0
20260506081619 14 187 16.1 35.4 0.00 0.00 0.00 82 1011.2
20260506081605 14 196 14.5 35.4 0.00 0.00 0.00 82 1011.1
20260506081504 14 198 12.9 35.4 0.00 0.00 0.00 82 1011.0
20260506081405 14 198 12.9 35.4 0.00 0.00 0.00 82 1011.0
20260506081304 14 199 12.9 35.4 0.00 0.00 0.00 82 1011.0
20260506081204 14 197 12.9 29.0 0.00 0.00 0.00 81 1011.0
20260506081105 14 199 12.9 29.0 0.00 0.00 0.00 81 1011.0
20260506081004 14 198 12.9 29.0 0.00 0.00 0.00 81 1011.0
20260506080904 14 200 12.9 29.0 0.00 0.00 0.00 81 1010.9
20260506080805 14 196 12.9 29.0 0.00 0.00 0.00 81 1010.9
20260506080704 14 199 12.9 29.0 0.00 0.00 0.00 81 1011.0
20260506080604 14 200 11.3 29.0 0.00 0.00 0.00 81 1010.9
20260506080505 14 199 11.3 35.4 0.00 0.00 0.00 81 1011.0
20260506080404 14 198 12.9 35.4 0.00 0.00 0.00 81 1011.1
20260506080305 14 197 12.9 35.4 0.00 0.00 0.00 81 1011.1
20260506080205 14 197 11.3 35.4 0.00 0.00 0.00 81 1011.0
20260506080115 14 200 11.3 35.4 0.00 0.00 0.00 81 1011.3
20260506080104 14 198 12.9 35.4 0.00 0.00 0.00 81 1011.0
20260506073505 15 200 11.3 27.4 0.00 0.00 0.00 80 1011.3
20260506073405 15 202 11.3 35.4 0.00 0.00 0.00 80 1011.3
20260506073304 15 201 12.9 35.4 0.00 0.00 0.00 80 1011.3
20260506073205 15 201 12.9 35.4 0.00 0.00 0.00 80 1011.3
20260506073112 14 242 12.9 32.2 0.00 0.00 0.00 80 1011.5
20260506073104 15 203 11.3 35.4 0.00 0.00 0.00 80 1011.3
20260506073004 15 206 11.3 35.4 0.00 0.00 0.00 80 1011.2
20260506072905 15 207 11.3 35.4 0.00 0.00 0.00 80 1011.3
20260506072804 15 211 11.3 35.4 0.00 0.00 0.00 80 1011.4
20260506072705 15 211 11.3 35.4 0.00 0.00 0.00 80 1011.3
20260506072604 15 209 11.3 35.4 0.00 0.00 0.00 80 1011.3
20260506072505 15 210 11.3 35.4 0.00 0.00 0.00 80 1011.3
20260506072404 15 207 11.3 32.2 0.00 0.00 0.00 80 1011.3
20260506072306 15 207 11.3 32.2 0.00 0.00 0.00 80 1011.3
20260506072204 15 205 11.3 32.2 0.00 0.00 0.00 80 1011.3
20260506072104 15 204 11.3 32.2 0.00 0.00 0.00 80 1011.3
20260506072005 15 205 12.9 37.0 0.00 0.00 0.00 80 1011.3
20260506071904 15 205 12.9 37.0 0.00 0.00 0.00 80 1011.4
20260506071805 15 203 14.5 37.0 0.00 0.00 0.00 80 1011.3
20260506071705 15 204 12.9 37.0 0.00 0.00 0.00 80 1011.3
20260506071620 14 114 11.3 33.8 0.00 0.00 0.00 80 1011.4
20260506071604 15 205 14.5 37.0 0.00 0.00 0.00 80 1011.3
20260506071505 15 204 14.5 37.0 0.00 0.00 0.00 80 1011.3
20260506071405 15 203 12.9 37.0 0.00 0.00 0.00 80 1011.2
20260506071304 15 204 14.5 37.0 0.00 0.00 0.00 80 1011.3
20260506071205 15 204 14.5 37.0 0.00 0.00 0.00 80 1011.3
20260506071105 15 206 14.5 37.0 0.00 0.00 0.00 80 1011.3
20260506071004 15 204 12.9 33.8 0.00 0.00 0.00 80 1011.2
20260506070905 15 204 14.5 33.8 0.00 0.00 0.00 80 1011.2
20260506070804 15 202 12.9 37.0 0.00 0.00 0.00 80 1011.2
20260506070704 15 200 14.5 37.0 0.00 0.00 0.00 80 1011.2
20260506070605 15 200 14.5 37.0 0.00 0.00 0.00 80 1011.2
20260506070505 15 198 14.5 37.0 0.00 0.00 0.00 80 1011.2
20260506070404 15 203 14.5 37.0 0.00 0.00 0.00 80 1011.2
20260506070305 15 202 12.9 37.0 0.00 0.00 0.00 80 1011.3
20260506070204 15 204 12.9 37.0 0.00 0.00 0.00 80 1011.2
20260506070112 14 278 11.3 37.0 0.00 0.00 0.00 80 1011.4
20260506070104 15 202 12.9 37.0 0.00 0.00 0.00 80 1011.2
20260506062204 15 204 16.1 41.8 0.00 0.00 0.00 80 1010.9
20260506062105 15 204 16.1 41.8 0.00 0.00 0.00 80 1011.0
20260506062005 15 202 16.1 41.8 0.00 0.00 0.00 79 1011.1
20260506061904 15 201 16.1 41.8 0.00 0.00 0.00 80 1011.1
20260506061805 15 200 14.5 41.8 0.00 0.00 0.00 79 1011.0
20260506061704 15 200 14.5 41.8 0.00 0.00 0.00 79 1011.1
20260506061620 15 177 19.3 41.8 0.00 0.00 0.00 79 1011.2
20260506061604 15 202 14.5 41.8 0.00 0.00 0.00 79 1011.1
20260506061505 15 199 12.9 41.8 0.00 0.00 0.00 79 1011.1
20260506061404 15 200 12.9 40.2 0.00 0.00 0.00 79 1011.2
20260506061305 15 203 12.9 32.2 0.00 0.00 0.00 79 1011.1
20260506061205 15 202 12.9 30.6 0.00 0.00 0.00 79 1011.1
20260506061104 15 203 12.9 30.6 0.00 0.00 0.00 79 1011.2
20260506061005 15 205 12.9 30.6 0.00 0.00 0.00 79 1011.3
20260506060904 15 206 12.9 27.4 0.00 0.00 0.00 79 1011.0
20260506060804 15 207 12.9 40.2 0.00 0.00 0.00 79 1011.1
20260506060705 15 205 12.9 40.2 0.00 0.00 0.00 79 1011.2
20260506060604 15 205 12.9 40.2 0.00 0.00 0.00 79 1011.2
20260506060504 15 207 12.9 40.2 0.00 0.00 0.00 79 1011.2
20260506060405 15 205 12.9 40.2 0.00 0.00 0.00 79 1011.3
20260506060304 15 203 12.9 40.2 0.00 0.00 0.00 79 1011.2
20260506060205 15 202 12.9 40.2 0.00 0.00 0.00 79 1011.3
20260506060110 15 294 12.9 35.4 0.00 0.00 0.00 79 1011.5
20260506060104 15 199 12.9 40.2 0.00 0.00 0.00 79 1011.2
20260506051404 15 204 12.9 32.2 0.00 0.00 0.00 78 1011.3
20260506051305 15 203 14.5 32.2 0.00 0.00 0.00 78 1011.3
20260506051205 15 200 14.5 32.2 0.00 0.00 0.00 78 1011.3
20260506051104 15 202 14.5 32.2 0.00 0.00 0.00 78 1011.4
20260506051005 15 202 14.5 32.2 0.00 0.00 0.00 78 1011.2
20260506050904 15 203 14.5 33.8 0.00 0.00 0.00 78 1011.2
20260506050804 15 204 14.5 33.8 0.00 0.00 0.00 78 1011.3
20260506050705 15 205 14.5 33.8 0.00 0.00 0.00 78 1011.2
20260506050604 15 205 14.5 37.0 0.00 0.00 0.00 78 1011.3
20260506050505 15 206 14.5 37.0 0.00 0.00 0.00 78 1011.2
20260506050405 15 207 14.5 37.0 0.00 0.00 0.00 78 1011.2
20260506050304 15 207 16.1 37.0 0.00 0.00 0.00 78 1011.2
20260506050205 15 206 16.1 37.0 0.00 0.00 0.00 78 1011.3
20260506050119 15 155 12.9 37.0 0.00 0.00 0.00 78 1011.4
20260506050104 15 204 16.1 41.8 0.00 0.00 0.00 78 1011.3
20260506045104 15 201 14.5 46.7 0.00 0.00 0.00 78 1011.3
20260506045004 15 201 16.1 46.7 0.00 0.00 0.00 78 1011.3
20260506044905 15 200 14.5 46.7 0.00 0.00 0.00 78 1011.3
20260506044804 15 199 14.5 46.7 0.00 0.00 0.00 78 1011.2
20260506044705 15 200 14.5 46.7 0.00 0.00 0.00 77 1011.2
20260506044617 15 196 16.1 46.7 0.00 0.00 0.00 77 1011.5
20260506044605 15 199 14.5 46.7 0.00 0.00 0.00 77 1011.3
20260506044504 15 200 14.5 46.7 0.00 0.00 0.00 77 1011.2
20260506044405 15 201 14.5 46.7 0.00 0.00 0.00 77 1011.3
20260506044305 15 200 14.5 46.7 0.00 0.00 0.00 77 1011.3
20260506044204 15 200 14.5 46.7 0.00 0.00 0.00 77 1011.3
20260506044105 15 200 14.5 37.0 0.00 0.00 0.00 77 1011.3
20260506044004 15 200 14.5 37.0 0.00 0.00 0.00 77 1011.4
20260506043904 15 198 14.5 37.0 0.00 0.00 0.00 77 1011.3
20260506043805 15 200 14.5 37.0 0.00 0.00 0.00 77 1011.3
20260506043705 15 200 16.1 37.0 0.00 0.00 0.00 77 1011.3
20260506043604 15 205 16.1 45.1 0.00 0.00 0.00 77 1011.3
20260506043505 15 203 14.5 45.1 0.00 0.00 0.00 77 1011.2
20260506043405 15 204 16.1 45.1 0.00 0.00 0.00 77 1011.3
20260506043304 15 207 16.1 45.1 0.00 0.00 0.00 78 1011.2
20260506043205 15 205 17.7 45.1 0.00 0.00 0.00 78 1011.2
20260506043109 15 168 11.3 45.1 0.00 0.00 0.00 78 1011.5
20260506043105 15 205 17.7 45.1 0.00 0.00 0.00 78 1011.2
20260506043004 15 206 19.3 45.1 0.00 0.00 0.00 78 1011.3
20260506042905 15 206 19.3 45.1 0.00 0.00 0.00 78 1011.3
20260506042804 15 206 19.3 45.1 0.00 0.00 0.00 78 1011.3
20260506042704 15 207 19.3 45.1 0.00 0.00 0.00 78 1011.4
20260506042605 15 203 17.7 53.1 0.00 0.00 0.00 78 1011.2
20260506042504 15 204 19.3 53.1 0.00 0.00 0.00 78 1011.3
20260506042404 15 202 17.7 53.1 0.00 0.00 0.00 78 1011.3
20260506042305 15 200 17.7 53.1 0.00 0.00 0.00 78 1011.3
20260506042204 15 203 17.7 53.1 0.00 0.00 0.00 78 1011.3
20260506042105 15 203 14.5 53.1 0.00 0.00 0.00 78 1011.2
20260506042004 15 203 14.5 53.1 0.00 0.00 0.00 78 1011.1
20260506041904 15 205 14.5 53.1 0.00 0.00 0.00 78 1011.1
20260506041805 15 204 14.5 53.1 0.00 0.00 0.00 78 1011.3
20260506041704 15 202 12.9 53.1 0.00 0.00 0.00 78 1011.2
20260506041616 15 168 12.9 45.1 0.00 0.00 0.00 78 1011.5
20260506041604 15 204 12.9 45.1 0.00 0.00 0.00 78 1011.3
20260506041505 15 204 12.9 45.1 0.00 0.00 0.00 78 1011.3
20260506041404 15 208 12.9 45.1 0.00 0.00 0.00 78 1011.3
20260506041304 15 209 11.3 45.1 0.00 0.00 0.00 78 1011.3
20260506041204 15 207 11.3 30.6 0.00 0.00 0.00 77 1011.2
20260506041104 15 206 12.9 30.6 0.00 0.00 0.00 78 1011.2
20260506041005 15 206 12.9 30.6 0.00 0.00 0.00 77 1011.2
20260506040904 15 200 12.9 48.3 0.00 0.00 0.00 77 1011.2
20260506040804 15 202 12.9 48.3 0.00 0.00 0.00 77 1011.2
20260506040705 15 202 12.9 48.3 0.00 0.00 0.00 77 1011.2
20260506040604 15 204 14.5 48.3 0.00 0.00 0.00 77 1011.2
20260506040505 15 204 12.9 48.3 0.00 0.00 0.00 77 1011.2
20260506040405 15 202 14.5 48.3 0.00 0.00 0.00 77 1011.2
20260506040107 15 198 16.1 48.3 0.00 0.00 0.00 77 1011.4
20260506035804 15 204 14.5 37.0 0.00 0.00 0.00 77 1011.2
20260506035704 15 205 14.5 37.0 0.00 0.00 0.00 77 1011.1
20260506035605 15 203 14.5 30.6 0.00 0.00 0.00 77 1011.2
20260506035504 15 202 16.1 30.6 0.00 0.00 0.00 77 1011.3
20260506035404 15 204 16.1 48.3 0.00 0.00 0.00 77 1011.1
20260506035306 15 206 16.1 48.3 0.00 0.00 0.00 77 1011.2
20260506035204 15 205 16.1 48.3 0.00 0.00 0.00 77 1011.2
20260506035104 15 206 16.1 48.3 0.00 0.00 0.00 77 1011.2
20260506035004 15 206 16.1 48.3 0.00 0.00 0.00 77 1011.3
20260506034904 15 205 14.5 48.3 0.00 0.00 0.00 77 1011.2
20260506034804 15 207 16.1 48.3 0.00 0.00 0.00 77 1011.3
20260506034704 15 208 14.5 48.3 0.00 0.00 0.00 77 1011.2
20260506034618 15 240 14.5 48.3 0.00 0.00 0.00 77 1011.4
20260506034604 15 209 16.1 48.3 0.00 0.00 0.00 77 1011.2
20260506034504 15 209 16.1 48.3 0.00 0.00 0.00 76 1011.2
20260506034405 15 207 14.5 43.5 0.00 0.00 0.00 76 1011.2
20260506034304 15 207 16.1 43.5 0.00 0.00 0.00 76 1011.2
20260506034205 15 207 16.1 43.5 0.00 0.00 0.00 76 1011.2
20260506034104 15 207 16.1 43.5 0.00 0.00 0.00 76 1011.2
20260506034005 15 208 14.5 43.5 0.00 0.00 0.00 76 1011.4
20260506033905 15 208 16.1 43.5 0.00 0.00 0.00 76 1011.4
20260506033804 15 205 16.1 43.5 0.00 0.00 0.00 76 1011.3
20260506033705 15 205 14.5 40.2 0.00 0.00 0.00 76 1011.3
20260506033107 15 216 11.3 30.6 0.00 0.00 0.00 76 1011.4
20260506033104 15 203 14.5 37.0 0.00 0.00 0.00 76 1011.2
20260506033005 15 203 16.1 37.0 0.00 0.00 0.00 76 1011.4
20260506032904 15 201 14.5 37.0 0.00 0.00 0.00 76 1011.2
20260506032804 15 204 14.5 37.0 0.00 0.00 0.00 76 1011.3
20260506032705 15 206 16.1 37.0 0.00 0.00 0.00 76 1011.3
20260506032604 15 207 16.1 37.0 0.00 0.00 0.00 76 1011.3
20260506032504 15 208 14.5 37.0 0.00 0.00 0.00 76 1011.3
20260506032405 15 208 16.1 37.0 0.00 0.00 0.00 76 1011.3
20260506032306 15 208 16.1 37.0 0.00 0.00 0.00 76 1011.4
20260506032204 15 209 14.5 37.0 0.00 0.00 0.00 76 1011.4
20260506032105 15 209 14.5 30.6 0.00 0.00 0.00 76 1011.3
20260506032004 15 208 14.5 30.6 0.00 0.00 0.00 76 1011.2
20260506031904 15 209 14.5 40.2 0.00 0.00 0.00 76 1011.3
20260506031805 15 209 14.5 40.2 0.00 0.00 0.00 76 1011.4
20260506031704 15 207 14.5 40.2 0.00 0.00 0.00 76 1011.3
20260506031616 15 196 14.5 40.2 0.00 0.00 0.00 76 1011.5
20260506031605 15 207 14.5 40.2 0.00 0.00 0.00 76 1011.2
20260506031504 15 207 12.9 40.2 0.00 0.00 0.00 76 1011.3
20260506031404 15 206 14.5 40.2 0.00 0.00 0.00 76 1011.3
20260506031305 15 205 14.5 40.2 0.00 0.00 0.00 76 1011.4
20260506031204 15 206 12.9 40.2 0.00 0.00 0.00 76 1011.2
20260506031104 15 204 12.9 40.2 0.00 0.00 0.00 76 1011.2
20260506031005 15 203 12.9 40.2 0.00 0.00 0.00 76 1011.2
20260506030904 15 207 12.9 40.2 0.00 0.00 0.00 76 1011.3
20260506030805 15 207 14.5 29.0 0.00 0.00 0.00 75 1011.3
20260506030705 15 208 14.5 33.8 0.00 0.00 0.00 75 1011.3
20260506030604 15 207 14.5 33.8 0.00 0.00 0.00 75 1011.2
20260506030505 15 206 14.5 33.8 0.00 0.00 0.00 75 1011.3
20260506030404 15 206 14.5 33.8 0.00 0.00 0.00 75 1011.2
20260506030304 15 206 14.5 33.8 0.00 0.00 0.00 75 1011.4
20260506030205 15 206 14.5 33.8 0.00 0.00 0.00 75 1011.2
20260506030106 15 181 12.9 35.4 0.00 0.00 0.00 75 1011.4
20260506030104 15 209 14.5 33.8 0.00 0.00 0.00 75 1011.4
20260506030005 15 209 14.5 33.8 0.00 0.00 0.00 75 1011.3
20260506025905 15 207 14.5 33.8 0.00 0.00 0.00 75 1011.3
20260506025804 15 204 14.5 33.8 0.00 0.00 0.00 75 1011.2
20260506025705 15 202 12.9 30.6 0.00 0.00 0.00 75 1011.3
20260506025604 15 204 14.5 30.6 0.00 0.00 0.00 75 1011.4
20260506025504 15 203 12.9 30.6 0.00 0.00 0.00 75 1011.4
20260506025405 15 203 14.5 30.6 0.00 0.00 0.00 75 1011.4
20260506024614 15 212 12.9 33.8 0.00 0.00 0.00 74 1011.7
20260506024204 15 200 14.5 37.0 0.00 0.00 0.00 74 1011.4
20260506024105 15 199 14.5 37.0 0.00 0.00 0.00 74 1011.3
20260506024005 15 201 14.5 37.0 0.00 0.00 0.00 74 1011.4
20260506023904 15 203 16.1 37.0 0.00 0.00 0.00 74 1011.3
20260506023805 15 202 14.5 40.2 0.00 0.00 0.00 74 1011.4
20260506023113 15 218 17.7 35.4 0.00 0.00 0.00 74 1011.5
20260506023104 16 203 16.1 40.2 0.00 0.00 0.00 74 1011.4
20260506023004 16 204 14.5 40.2 0.00 0.00 0.00 74 1011.3
20260506022905 16 203 14.5 40.2 0.00 0.00 0.00 74 1011.3
20260506022804 16 205 14.5 38.6 0.00 0.00 0.00 74 1011.3
20260506022704 16 204 14.5 38.6 0.00 0.00 0.00 74 1011.4
20260506022605 16 205 14.5 38.6 0.00 0.00 0.00 74 1011.4
20260506021612 15 197 16.1 37.0 0.00 0.00 0.00 73 1011.6
20260506021504 16 198 14.5 40.2 0.00 0.00 0.00 73 1011.3
20260506021404 16 195 16.1 40.2 0.00 0.00 0.00 73 1011.3
20260506021305 16 197 14.5 40.2 0.00 0.00 0.00 73 1011.4
20260506021204 16 197 16.1 40.2 0.00 0.00 0.00 73 1011.3
20260506021104 16 196 14.5 40.2 0.00 0.00 0.00 73 1011.3
20260506021005 16 197 14.5 40.2 0.00 0.00 0.00 73 1011.2
20260506020904 16 197 14.5 40.2 0.00 0.00 0.00 73 1011.3
20260506020804 16 198 14.5 37.0 0.00 0.00 0.00 73 1011.3
20260506020705 16 200 14.5 37.0 0.00 0.00 0.00 73 1011.3
20260506020604 16 200 14.5 37.0 0.00 0.00 0.00 72 1011.4
20260506020505 16 201 14.5 35.4 0.00 0.00 0.00 72 1011.4
20260506020405 16 206 12.9 35.4 0.00 0.00 0.00 73 1011.4
20260506020304 16 203 14.5 27.4 0.00 0.00 0.00 73 1011.3
20260506020205 16 205 14.5 27.4 0.00 0.00 0.00 73 1011.2
20260506020104 16 207 14.5 27.4 0.00 0.00 0.00 72 1011.3
20260506020004 16 209 14.5 33.8 0.00 0.00 0.00 72 1011.3
20260506015905 16 210 16.1 33.8 0.00 0.00 0.00 72 1011.4
20260506015804 16 213 16.1 45.1 0.00 0.00 0.00 72 1011.3
20260506015704 16 211 16.1 45.1 0.00 0.00 0.00 72 1011.2
20260506015605 16 211 16.1 45.1 0.00 0.00 0.00 72 1011.2
20260506015504 16 214 16.1 45.1 0.00 0.00 0.00 72 1011.3
20260506015404 16 211 17.7 45.1 0.00 0.00 0.00 72 1011.3
20260506015306 16 213 16.1 45.1 0.00 0.00 0.00 72 1011.3
20260506015204 16 213 16.1 45.1 0.00 0.00 0.00 72 1011.3
20260506015104 16 214 16.1 45.1 0.00 0.00 0.00 72 1011.3
20260506015004 16 212 16.1 45.1 0.00 0.00 0.00 72 1011.2
20260506014904 16 213 16.1 45.1 0.00 0.00 0.00 72 1011.3
20260506014805 16 215 16.1 43.5 0.00 0.00 0.00 72 1011.2
20260506014704 16 219 16.1 43.5 0.00 0.00 0.00 71 1011.3
20260506014610 16 239 16.1 41.8 0.00 0.00 0.00 72 1011.5
20260506014605 16 219 14.5 43.5 0.00 0.00 0.00 71 1011.4
20260506014504 16 219 14.5 43.5 0.00 0.00 0.00 71 1011.2
20260506014404 16 220 14.5 43.5 0.00 0.00 0.00 71 1011.2
20260506014305 16 219 16.1 43.5 0.00 0.00 0.00 71 1011.3
20260506014204 16 219 16.1 43.5 0.00 0.00 0.00 71 1011.2
20260506014105 16 219 16.1 43.5 0.00 0.00 0.00 71 1011.1
20260506014004 16 219 16.1 43.5 0.00 0.00 0.00 71 1011.2
20260506013904 16 218 14.5 43.5 0.00 0.00 0.00 71 1011.1
20260506013805 16 217 16.1 37.0 0.00 0.00 0.00 71 1011.1
20260506013704 16 214 14.5 37.0 0.00 0.00 0.00 71 1011.2
20260506013604 16 214 14.5 35.4 0.00 0.00 0.00 71 1011.0
20260506013505 16 210 14.5 35.4 0.00 0.00 0.00 71 1011.1
20260506013404 16 211 14.5 35.4 0.00 0.00 0.00 71 1010.9
20260506013304 16 211 12.9 35.4 0.00 0.00 0.00 71 1011.1
20260506013117 16 221 11.3 35.4 0.00 0.00 0.00 71 1011.2
20260506012704 16 205 16.1 46.7 0.00 0.00 0.00 71 1011.0
20260506012604 16 206 17.7 46.7 0.00 0.00 0.00 71 1011.0
20260506012505 16 208 17.7 48.3 0.00 0.00 0.00 71 1010.8
20260506012404 16 207 17.7 48.3 0.00 0.00 0.00 71 1010.9
20260506012307 16 207 16.1 48.3 0.00 0.00 0.00 71 1010.9
20260506012205 16 208 16.1 48.3 0.00 0.00 0.00 71 1010.9
20260506012104 16 205 17.7 48.3 0.00 0.00 0.00 71 1010.9
20260506012004 16 205 17.7 48.3 0.00 0.00 0.00 71 1010.8
20260506011904 16 205 17.7 48.3 0.00 0.00 0.00 71 1010.7
20260506011804 16 205 17.7 48.3 0.00 0.00 0.00 70 1010.9
20260506011705 16 207 16.1 48.3 0.00 0.00 0.00 70 1010.8
20260506011608 16 185 20.9 46.7 0.00 0.00 0.00 70 1011.0
20260506011604 16 206 16.1 48.3 0.00 0.00 0.00 70 1010.8
20260506011504 16 204 16.1 43.5 0.00 0.00 0.00 70 1010.7
20260506011405 16 204 16.1 43.5 0.00 0.00 0.00 70 1010.8
20260506011304 16 204 17.7 43.5 0.00 0.00 0.00 70 1010.8
20260506011204 16 204 17.7 43.5 0.00 0.00 0.00 70 1010.8
20260506011105 16 204 16.1 43.5 0.00 0.00 0.00 70 1010.7
20260506011004 16 205 16.1 35.4 0.00 0.00 0.00 70 1010.7
20260506010904 16 206 16.1 35.4 0.00 0.00 0.00 70 1010.7
20260506010805 16 206 14.5 35.4 0.00 0.00 0.00 70 1010.6
20260506010704 16 205 16.1 35.4 0.00 0.00 0.00 70 1010.7
20260506010604 16 206 16.1 35.4 0.00 0.00 0.00 70 1010.7
20260506010505 16 207 16.1 35.4 0.00 0.00 0.00 70 1010.6
20260506010115 16 240 14.5 37.0 0.00 0.00 0.00 71 1010.9
20260506005904 16 209 14.5 35.4 0.00 0.00 0.00 71 1010.5
20260506005804 16 210 14.5 35.4 0.00 0.00 0.00 71 1010.6
20260506005705 16 209 14.5 35.4 0.00 0.00 0.00 71 1010.5
20260506005604 16 208 12.9 35.4 0.00 0.00 0.00 71 1010.5
20260506005504 16 206 14.5 35.4 0.00 0.00 0.00 71 1010.4
20260506005405 16 207 14.5 35.4 0.00 0.00 0.00 71 1010.4
20260506005305 16 207 14.5 35.4 0.00 0.00 0.00 71 1010.5
20260506005204 16 207 14.5 35.4 0.00 0.00 0.00 71 1010.4
20260506005105 16 207 14.5 35.4 0.00 0.00 0.00 71 1010.5
20260506005004 16 208 14.5 35.4 0.00 0.00 0.00 71 1010.5
20260506004904 16 209 16.1 41.8 0.00 0.00 0.00 71 1010.4
20260506004805 16 208 16.1 41.8 0.00 0.00 0.00 71 1010.4
20260506004704 16 208 16.1 41.8 0.00 0.00 0.00 71 1010.5
20260506004604 16 163 12.9 41.8 0.00 0.00 0.00 71 1010.7
20260506004505 16 210 17.7 41.8 0.00 0.00 0.00 71 1010.4
20260506004404 16 211 16.1 41.8 0.00 0.00 0.00 71 1010.4
20260506004304 16 209 16.1 41.8 0.00 0.00 0.00 71 1010.4
20260506004205 16 212 16.1 41.8 0.00 0.00 0.00 71 1010.3
20260506004105 16 210 16.1 41.8 0.00 0.00 0.00 71 1010.2
20260506004004 16 211 16.1 41.8 0.00 0.00 0.00 71 1010.1
20260506003904 16 209 16.1 37.0 0.00 0.00 0.00 71 1010.3
20260506003804 16 210 16.1 46.7 0.00 0.00 0.00 71 1010.4
20260506003705 16 212 16.1 46.7 0.00 0.00 0.00 71 1010.2
20260506003604 16 212 16.1 46.7 0.00 0.00 0.00 71 1010.2
20260506003504 16 211 16.1 53.1 0.00 0.00 0.00 71 1010.3
20260506003404 16 211 16.1 53.1 0.00 0.00 0.00 71 1010.2
20260506003304 16 212 17.7 53.1 0.00 0.00 0.00 71 1010.2
20260506003205 16 210 17.7 53.1 0.00 0.00 0.00 71 1010.2
20260506003110 16 275 16.1 49.9 0.00 0.00 0.00 71 1010.4
20260506003104 16 212 17.7 53.1 0.00 0.00 0.00 71 1010.2
20260506003004 16 212 17.7 53.1 0.00 0.00 0.00 71 1010.1
20260506002905 16 214 17.7 53.1 0.00 0.00 0.00 71 1010.1
20260506002804 16 213 17.7 53.1 0.00 0.00 0.00 71 1010.2
20260506002704 16 212 17.7 53.1 0.00 0.00 0.00 71 1010.2
20260506002605 16 212 17.7 53.1 0.00 0.00 0.00 71 1010.1
20260506002504 16 212 17.7 49.9 0.00 0.00 0.00 70 1010.2
20260506002404 16 212 17.7 49.9 0.00 0.00 0.00 70 1010.1
20260506002306 16 211 17.7 49.9 0.00 0.00 0.00 71 1010.1
20260506002204 16 209 17.7 45.1 0.00 0.00 0.00 71 1010.1
20260506002105 16 210 17.7 45.1 0.00 0.00 0.00 71 1010.0
20260506002004 16 210 17.7 45.1 0.00 0.00 0.00 71 1010.0
20260506001904 16 210 17.7 45.1 0.00 0.00 0.00 71 1010.1
20260506001805 16 210 17.7 45.1 0.00 0.00 0.00 71 1009.9
20260506001704 16 212 19.3 45.1 0.00 0.00 0.00 71 1010.1
20260506001604 16 213 19.3 45.1 0.00 0.00 0.00 71 1010.0
20260506001505 16 215 19.3 49.9 0.00 0.00 0.00 71 1010.0
20260506001404 16 215 19.3 49.9 0.00 0.00 0.00 71 1010.1
20260506001304 16 215 19.3 49.9 0.00 0.00 0.00 71 1009.9
20260506001204 16 217 17.7 49.9 0.00 0.00 0.00 70 1010.1
20260506001104 16 215 17.7 49.9 0.00 0.00 0.00 71 1010.0
20260506001005 16 214 17.7 49.9 0.00 0.00 0.00 70 1010.2
20260506000904 16 213 17.7 49.9 0.00 0.00 0.00 70 1010.0
20260506000804 16 213 16.1 49.9 0.00 0.00 0.00 70 1009.9
20260506000704 16 210 16.1 49.9 0.00 0.00 0.00 70 1010.1
20260506000604 16 210 16.1 49.9 0.00 0.00 0.00 70 1010.0
20260506000505 16 206 16.1 38.6 0.00 0.00 0.00 70 1010.1
20260506000405 16 205 16.1 38.6 0.00 0.00 0.00 70 1009.9
20260506000304 16 205 16.1 38.6 0.00 0.00 0.00 70 1009.9
20260506000205 16 206 16.1 40.2 0.00 0.00 0.00 70 1009.8
20260506000108 16 73 14.5 43.5 0.00 0.00 0.00 70 1010.0
20260506000105 16 206 16.1 40.2 0.00 0.00 0.00 70 1009.7
20260506000004 16 207 16.1 40.2 0.00 0.00 0.00 70 1009.9
20260505235904 16 205 16.1 40.2 0.00 0.00 0.00 70 1009.8
20260505235805 16 205 16.1 40.2 0.00 0.00 0.00 70 1009.8
20260505235704 16 209 16.1 40.2 0.00 0.00 0.00 70 1009.6
20260505235604 16 209 16.1 40.2 0.00 0.00 0.00 70 1009.7
20260505235504 16 209 16.1 40.2 0.00 0.00 0.00 70 1009.8
20260505235404 16 211 17.7 40.2 0.00 0.00 0.00 70 1009.8
20260505235305 16 211 16.1 40.2 0.00 0.00 0.00 70 1009.6
20260505235204 16 212 16.1 38.6 0.00 0.00 0.00 70 1009.7
20260505235104 16 212 17.7 38.6 0.00 0.00 0.00 70 1009.9
20260505235004 16 213 17.7 38.6 0.00 0.00 0.00 70 1009.8
20260505234904 16 215 17.7 38.6 0.00 0.00 0.00 69 1009.8
20260505234805 16 214 19.3 43.5 0.00 0.00 0.00 69 1009.8
20260505234704 16 212 17.7 43.5 0.00 0.00 0.00 69 1009.9
20260505234619 16 261 16.1 43.5 0.00 0.00 0.00 69 1010.1
20260505234604 16 212 17.7 43.5 0.00 0.00 0.00 69 1009.8
20260505234505 16 213 17.7 43.5 0.00 0.00 0.00 69 1009.9
20260505234404 16 212 17.7 43.5 0.00 0.00 0.00 69 1009.9
20260505234304 16 211 17.7 43.5 0.00 0.00 0.00 69 1009.8
20260505234205 16 212 17.7 43.5 0.00 0.00 0.00 69 1009.7
20260505234104 16 213 16.1 43.5 0.00 0.00 0.00 69 1009.9
20260505234004 16 210 16.1 43.5 0.00 0.00 0.00 69 1009.7
20260505233904 16 210 16.1 43.5 0.00 0.00 0.00 69 1009.7
20260505233804 17 210 14.5 38.6 0.00 0.00 0.00 69 1009.6
20260505233704 17 208 16.1 33.8 0.00 0.00 0.00 69 1009.6
20260505233604 17 210 14.5 51.5 0.00 0.00 0.00 69 1009.6
20260505233504 17 211 14.5 51.5 0.00 0.00 0.00 69 1009.7
20260505233404 17 210 12.9 51.5 0.00 0.00 0.00 69 1009.6
20260505233304 17 210 12.9 51.5 0.00 0.00 0.00 69 1009.6
20260505233204 17 209 12.9 51.5 0.00 0.00 0.00 69 1009.6
20260505233107 16 189 14.5 48.3 0.00 0.00 0.00 69 1009.8
20260505233105 17 206 14.5 51.5 0.00 0.00 0.00 69 1009.6
20260505233004 17 208 14.5 51.5 0.00 0.00 0.00 69 1009.6
20260505232904 17 208 14.5 51.5 0.00 0.00 0.00 69 1009.5
20260505232805 17 211 14.5 51.5 0.00 0.00 0.00 69 1009.5
20260505232704 17 211 14.5 51.5 0.00 0.00 0.00 69 1009.4
20260505232604 17 209 14.5 48.3 0.00 0.00 0.00 69 1009.4
20260505232505 17 208 16.1 48.3 0.00 0.00 0.00 69 1009.5
20260505232404 17 207 16.1 48.3 0.00 0.00 0.00 69 1009.4
20260505232305 17 207 17.7 48.3 0.00 0.00 0.00 68 1009.5
20260505232205 17 207 19.3 48.3 0.00 0.00 0.00 68 1009.5
20260505232104 17 211 17.7 48.3 0.00 0.00 0.00 68 1009.5
20260505232004 17 210 17.7 48.3 0.00 0.00 0.00 68 1009.5
20260505231905 17 210 17.7 48.3 0.00 0.00 0.00 68 1009.5
20260505231804 17 208 16.1 48.3 0.00 0.00 0.00 68 1009.4
20260505231704 17 206 16.1 48.3 0.00 0.00 0.00 68 1009.5
20260505231620 17 183 20.9 46.7 0.00 0.00 0.00 68 1009.7
20260505231604 17 208 16.1 48.3 0.00 0.00 0.00 68 1009.5
20260505231504 17 207 16.1 40.2 0.00 0.00 0.00 68 1009.5
20260505231405 17 210 16.1 49.9 0.00 0.00 0.00 68 1009.5
20260505231304 17 209 14.5 49.9 0.00 0.00 0.00 68 1009.5
20260505231204 17 208 14.5 49.9 0.00 0.00 0.00 68 1009.6
20260505231105 17 204 14.5 49.9 0.00 0.00 0.00 68 1009.5
20260505231004 17 206 16.1 49.9 0.00 0.00 0.00 68 1009.7
20260505230904 17 206 16.1 49.9 0.00 0.00 0.00 68 1009.5
20260505230805 17 208 16.1 51.5 0.00 0.00 0.00 68 1009.5
20260505230704 17 209 16.1 51.5 0.00 0.00 0.00 68 1009.4
20260505230604 17 211 16.1 51.5 0.00 0.00 0.00 68 1009.5
20260505230505 17 211 16.1 51.5 0.00 0.00 0.00 68 1009.4
20260505230404 17 214 14.5 51.5 0.00 0.00 0.00 68 1009.4
20260505230304 17 215 14.5 51.5 0.00 0.00 0.00 68 1009.4
20260505230204 17 216 14.5 51.5 0.00 0.00 0.00 68 1009.5
20260505230123 -17 205 19.3 45.1 0.00 0.00 0.00 1009.6
20260505230104 17 219 14.5 51.5 0.00 0.00 0.00 68 1009.4
20260505230004 17 220 16.1 51.5 0.00 0.00 0.00 68 1009.5
20260505225904 17 219 16.1 51.5 0.00 0.00 0.00 68 1009.5
20260505225804 17 218 17.7 48.3 0.00 0.00 0.00 68 1009.4
20260505225705 17 217 17.7 48.3 0.00 0.00 0.00 67 1009.3
20260505225604 17 217 17.7 48.3 0.00 0.00 0.00 67 1009.4
20260505225504 17 216 17.7 48.3 0.00 0.00 0.00 67 1009.5
20260505225404 17 213 19.3 40.2 0.00 0.00 0.00 67 1009.4
20260505225306 17 215 19.3 40.2 0.00 0.00 0.00 67 1009.4
20260505224704 17 210 16.1 40.2 0.00 0.00 0.00 67 1009.4
20260505224618 -17 223 22.5 40.2 0.00 0.00 0.00 1009.5
20260505224604 17 209 16.1 40.2 0.00 0.00 0.00 67 1009.4
20260505224504 17 210 16.1 40.2 0.00 0.00 0.00 67 1009.2
20260505224404 17 212 16.1 35.4 0.00 0.00 0.00 67 1009.3
20260505224304 17 210 16.1 35.4 0.00 0.00 0.00 67 1009.3
20260505224204 17 212 16.1 35.4 0.00 0.00 0.00 67 1009.2
20260505224104 17 212 16.1 35.4 0.00 0.00 0.00 67 1009.1
20260505224004 17 214 16.1 35.4 0.00 0.00 0.00 67 1009.3
20260505223904 17 216 16.1 35.4 0.00 0.00 0.00 66 1009.3
20260505223804 17 217 16.1 35.4 0.00 0.00 0.00 66 1009.3
20260505223704 17 217 16.1 35.4 0.00 0.00 0.00 66 1009.3
20260505223604 17 218 16.1 35.4 0.00 0.00 0.00 66 1009.3
20260505223505 17 219 16.1 35.4 0.00 0.00 0.00 66 1009.3
20260505223405 17 216 16.1 35.4 0.00 0.00 0.00 66 1009.3
20260505223304 17 218 16.1 35.4 0.00 0.00 0.00 66 1009.1
20260505223104 18 186 17.7 40.2 0.00 0.00 0.00 64 1009.4
20260505222704 18 214 17.7 46.7 0.00 0.00 0.00 65 1009.0
20260505222604 18 215 17.7 46.7 0.00 0.00 0.00 65 1009.2
20260505222504 18 214 16.1 46.7 0.00 0.00 0.00 64 1009.2
20260505222404 18 214 14.5 46.7 0.00 0.00 0.00 64 1009.2
20260505222306 18 215 16.1 46.7 0.00 0.00 0.00 64 1009.2
20260505221616 18 162 9.7 27.4 0.00 0.00 0.00 64 1009.4
20260505220104 18 223 16.1 46.7 0.00 0.00 0.00 63 1009.2
20260505220004 19 204 12.9 43.5 0.00 0.00 0.00 62 1009.1
20260505215904 19 205 12.9 35.4 0.00 0.00 0.00 62 1009.0
20260505215804 19 205 12.9 35.4 0.00 0.00 0.00 62 1009.0
20260505215704 19 203 12.9 27.4 0.00 0.00 0.00 62 1009.0
20260505215604 19 200 12.9 27.4 0.00 0.00 0.00 62 1009.0
20260505215504 19 202 12.9 27.4 0.00 0.00 0.00 62 1008.8
20260505214614 19 142 8.0 30.6 0.00 0.00 0.00 61 1008.9
20260505214304 20 204 12.9 30.6 0.00 0.00 0.00 61 1008.8
20260505214204 20 202 12.9 30.6 0.00 0.00 0.00 61 1008.8
20260505214104 20 201 11.3 30.6 0.00 0.00 0.00 61 1008.9
20260505214004 20 200 11.3 30.6 0.00 0.00 0.00 61 1008.9
20260505213904 20 200 11.3 30.6 0.00 0.00 0.00 61 1008.8
20260505213805 20 199 11.3 30.6 0.00 0.00 0.00 61 1008.8
20260505213704 20 201 11.3 30.6 0.00 0.00 0.00 61 1009.0
20260505213604 20 203 9.7 30.6 0.00 0.00 0.00 61 1009.0
20260505213504 20 204 11.3 22.5 0.00 0.00 0.00 62 1009.0
20260505213404 20 206 11.3 22.5 0.00 0.00 0.00 61 1008.9
20260505213303 20 206 11.3 27.4 0.00 0.00 0.00 61 1009.0
20260505213204 20 209 11.3 27.4 0.00 0.00 0.00 61 1009.0
20260505213104 20 210 11.3 27.4 0.00 0.00 0.00 61 1008.9
20260505213004 20 212 11.3 27.4 0.00 0.00 0.00 61 1009.0
20260505212904 20 213 12.9 27.4 0.00 0.00 0.00 61 1008.9
20260505212203 20 210 12.9 29.0 0.00 0.00 0.00 61 1008.9
20260505212104 20 209 12.9 29.0 0.00 0.00 0.00 61 1008.8
20260505212004 20 208 12.9 29.0 0.00 0.00 0.00 61 1008.9
20260505211904 20 208 12.9 33.8 0.00 0.00 0.00 61 1008.9
20260505211804 20 208 12.9 33.8 0.00 0.00 0.00 61 1008.7
20260505211704 20 206 12.9 33.8 0.00 0.00 0.00 61 1008.9
20260505211604 20 206 11.3 33.8 0.00 0.00 0.00 61 1008.7
20260505211505 20 206 11.3 33.8 0.00 0.00 0.00 61 1008.7
20260505211404 20 207 11.3 33.8 0.00 0.00 0.00 61 1008.8
20260505211304 20 209 11.3 33.8 0.00 0.00 0.00 61 1008.8
20260505210104 20 202 12.9 27.4 0.00 0.00 0.00 61 1008.6
20260505210004 20 201 11.3 33.8 0.00 0.00 0.00 61 1008.6
20260505205905 20 200 11.3 33.8 0.00 0.00 0.00 61 1008.6
20260505205804 20 200 12.9 33.8 0.00 0.00 0.00 61 1008.7
20260505205704 20 200 12.9 33.8 0.00 0.00 0.00 61 1008.6
20260505205605 20 199 14.5 33.8 0.00 0.00 0.00 61 1008.5
20260505205504 20 200 14.5 33.8 0.00 0.00 0.00 60 1008.7
20260505205404 20 199 16.1 33.8 0.00 0.00 0.00 60 1008.6
20260505205305 21 198 16.1 33.8 0.00 0.00 0.00 60 1008.7
20260505205204 21 195 16.1 33.8 0.00 0.00 0.00 60 1008.7
20260505205104 21 195 14.5 33.8 0.00 0.00 0.00 60 1008.7
20260505205004 21 194 12.9 32.2 0.00 0.00 0.00 60 1008.6
20260505204904 21 194 12.9 32.2 0.00 0.00 0.00 60 1008.7
20260505204805 21 194 11.3 32.2 0.00 0.00 0.00 60 1008.6
20260505204704 21 194 11.3 32.2 0.00 0.00 0.00 61 1008.6
20260505204604 21 194 9.7 32.2 0.00 0.00 0.00 61 1008.6
20260505204505 21 194 9.7 32.2 0.00 0.00 0.00 61 1008.7
20260505204404 21 197 9.7 32.2 0.00 0.00 0.00 61 1008.6
20260505204304 21 199 8.0 27.4 0.00 0.00 0.00 61 1008.7
20260505204204 21 203 9.7 27.4 0.00 0.00 0.00 61 1008.7
20260505204104 21 206 9.7 27.4 0.00 0.00 0.00 61 1008.7
20260505204004 21 209 9.7 27.4 0.00 0.00 0.00 60 1008.7
20260505203904 21 207 11.3 27.4 0.00 0.00 0.00 60 1008.7
20260505203804 21 205 11.3 27.4 0.00 0.00 0.00 60 1008.8
20260505203704 21 203 11.3 27.4 0.00 0.00 0.00 60 1008.7
20260505203604 21 201 11.3 27.4 0.00 0.00 0.00 60 1008.7
20260505203504 21 199 11.3 24.1 0.00 0.00 0.00 60 1008.6
20260505203404 21 196 11.3 24.1 0.00 0.00 0.00 60 1008.8
20260505203304 21 196 11.3 27.4 0.00 0.00 0.00 60 1008.7
20260505203204 21 195 11.3 27.4 0.00 0.00 0.00 60 1008.7
20260505203104 21 194 12.9 27.4 0.00 0.00 0.00 60 1008.8
20260505203004 21 193 11.3 27.4 0.00 0.00 0.00 60 1008.7
20260505202904 21 190 11.3 27.4 0.00 0.00 0.00 61 1008.8
20260505202805 21 188 11.3 27.4 0.00 0.00 0.00 60 1008.7
20260505202704 21 186 11.3 27.4 0.00 0.00 0.00 61 1008.7
20260505202604 21 190 11.3 29.0 0.00 0.00 0.00 60 1008.7
20260505202505 21 191 11.3 29.0 0.00 0.00 0.00 61 1008.8
20260505202404 21 190 11.3 29.0 0.00 0.00 0.00 60 1008.7
20260505202306 21 191 12.9 29.0 0.00 0.00 0.00 61 1008.7
20260505202204 21 194 12.9 29.0 0.00 0.00 0.00 61 1008.7
20260505202104 21 191 11.3 29.0 0.00 0.00 0.00 61 1008.7
20260505202004 21 192 11.3 29.0 0.00 0.00 0.00 60 1008.6
20260505201904 21 195 12.9 29.0 0.00 0.00 0.00 60 1008.7
20260505201804 21 196 11.3 29.0 0.00 0.00 0.00 60 1008.7
20260505201704 21 198 11.3 29.0 0.00 0.00 0.00 60 1008.8
20260505201604 21 197 11.3 29.0 0.00 0.00 0.00 60 1008.7
20260505201504 21 198 11.3 29.0 0.00 0.00 0.00 60 1008.7
20260505201404 21 200 11.3 29.0 0.00 0.00 0.00 60 1008.8
20260505201304 21 200 11.3 37.0 0.00 0.00 0.00 60 1008.8
20260505201204 21 196 11.3 37.0 0.00 0.00 0.00 60 1008.7
20260505201104 21 200 12.9 37.0 0.00 0.00 0.00 60 1008.7
20260505201004 21 200 14.5 37.0 0.00 0.00 0.00 60 1008.7
20260505200304 21 194 14.5 33.8 0.00 0.00 0.00 60 1008.8
20260505200204 21 195 12.9 33.8 0.00 0.00 0.00 59 1008.8
20260505200110 21 217 19.3 37.0 0.00 0.00 0.00 59 1009.0
20260505200104 21 193 14.5 33.8 0.00 0.00 0.00 60 1008.7
20260505200004 21 196 12.9 33.8 0.00 0.00 0.00 60 1008.8
20260505195904 21 195 14.5 32.2 0.00 0.00 0.00 60 1008.8
20260505195804 21 195 14.5 33.8 0.00 0.00 0.00 60 1008.8
20260505195704 21 197 14.5 33.8 0.00 0.00 0.00 60 1008.8
20260505195605 21 195 14.5 33.8 0.00 0.00 0.00 60 1008.8
20260505195504 21 196 16.1 33.8 0.00 0.00 0.00 60 1008.9
20260505195404 21 199 16.1 33.8 0.00 0.00 0.00 60 1008.8
20260505195305 21 196 16.1 38.6 0.00 0.00 0.00 60 1009.0
20260505195204 21 196 17.7 38.6 0.00 0.00 0.00 60 1008.9
20260505195104 21 195 16.1 38.6 0.00 0.00 0.00 60 1009.0
20260505195004 21 192 16.1 38.6 0.00 0.00 0.00 60 1009.0
20260505194904 21 191 16.1 38.6 0.00 0.00 0.00 60 1009.1
20260505194804 21 191 16.1 38.6 0.00 0.00 0.00 60 1009.1
20260505194704 21 191 16.1 38.6 0.00 0.00 0.00 60 1009.1
20260505194604 21 190 19.3 38.6 0.00 0.00 0.00 60 1009.3
20260505194504 21 189 12.9 38.6 0.00 0.00 0.00 61 1009.0
20260505194404 21 187 12.9 38.6 0.00 0.00 0.00 61 1009.1
20260505194304 21 190 12.9 29.0 0.00 0.00 0.00 61 1009.1
20260505194204 21 191 11.3 29.0 0.00 0.00 0.00 60 1009.1
20260505194104 21 191 11.3 29.0 0.00 0.00 0.00 61 1009.1
20260505194004 21 191 11.3 29.0 0.00 0.00 0.00 60 1009.1
20260505193905 21 191 11.3 29.0 0.00 0.00 0.00 61 1009.1
20260505193804 21 190 11.3 29.0 0.00 0.00 0.00 61 1009.1
20260505193704 21 189 11.3 29.0 0.00 0.00 0.00 61 1009.0
20260505193604 21 192 11.3 29.0 0.00 0.00 0.00 61 1009.0
20260505193504 21 190 11.3 29.0 0.00 0.00 0.00 61 1009.2
20260505193404 21 191 11.3 29.0 0.00 0.00 0.00 61 1009.1
20260505193304 21 192 11.3 29.0 0.00 0.00 0.00 61 1009.2
20260505193205 21 191 11.3 29.0 0.00 0.00 0.00 61 1009.1
20260505193110 21 171 11.3 29.0 0.00 0.00 0.00 61 1009.4
20260505193104 21 192 9.7 29.0 0.00 0.00 0.00 61 1009.2
20260505193005 21 193 11.3 29.0 0.00 0.00 0.00 61 1009.2
20260505192905 21 192 11.3 29.0 0.00 0.00 0.00 61 1009.2
20260505192804 21 189 11.3 27.4 0.00 0.00 0.00 61 1009.3
20260505192704 21 193 11.3 27.4 0.00 0.00 0.00 61 1009.3
20260505192604 21 192 11.3 27.4 0.00 0.00 0.00 61 1009.3
20260505192504 21 195 11.3 27.4 0.00 0.00 0.00 61 1009.3
20260505192404 21 192 9.7 27.4 0.00 0.00 0.00 61 1009.3
20260505192306 21 191 9.7 27.4 0.00 0.00 0.00 61 1009.4
20260505192204 21 192 9.7 27.4 0.00 0.00 0.00 61 1009.4
20260505192104 21 193 9.7 27.4 0.00 0.00 0.00 61 1009.5
20260505192004 21 193 9.7 27.4 0.00 0.00 0.00 61 1009.4
20260505191904 21 195 9.7 27.4 0.00 0.00 0.00 60 1009.4
20260505191804 21 197 9.7 29.0 0.00 0.00 0.00 61 1009.4
20260505191704 21 192 9.7 29.0 0.00 0.00 0.00 61 1009.6
20260505191621 21 197 8.0 29.0 0.00 0.00 0.00 61 1009.8
20260505191605 21 189 9.7 29.0 0.00 0.00 0.00 61 1009.7
20260505191504 21 187 9.7 29.0 0.00 0.00 0.00 61 1009.6
20260505191404 21 188 11.3 29.0 0.00 0.00 0.00 61 1009.6
20260505191304 21 187 12.9 29.0 0.00 0.00 0.00 61 1009.6
20260505191204 21 185 12.9 29.0 0.00 0.00 0.00 61 1009.6
20260505191104 21 184 12.9 29.0 0.00 0.00 0.00 61 1009.6
20260505191004 21 183 12.9 29.0 0.00 0.00 0.00 61 1009.6
20260505190904 21 183 14.5 29.0 0.00 0.00 0.00 61 1009.7
20260505190803 21 184 12.9 29.0 0.00 0.00 0.00 61 1009.6
20260505190704 21 185 12.9 27.4 0.00 0.00 0.00 61 1009.6
20260505190604 21 184 12.9 27.4 0.00 0.00 0.00 61 1009.7
20260505190504 21 184 12.9 27.4 0.00 0.00 0.00 61 1009.7
20260505190404 21 184 12.9 27.4 0.00 0.00 0.00 61 1009.7
20260505190304 21 185 12.9 27.4 0.00 0.00 0.00 60 1009.7
20260505190204 21 186 14.5 27.4 0.00 0.00 0.00 60 1009.7
20260505190112 21 132 16.1 25.7 0.00 0.00 0.00 61 1009.9
20260505190104 21 186 14.5 27.4 0.00 0.00 0.00 60 1009.7
20260505190005 21 186 12.9 27.4 0.00 0.00 0.00 60 1009.7
20260505185305 21 182 11.3 32.2 0.00 0.00 0.00 61 1009.7
20260505185204 21 181 11.3 32.2 0.00 0.00 0.00 61 1009.8
20260505185104 21 184 11.3 32.2 0.00 0.00 0.00 61 1009.8
20260505185004 21 186 11.3 32.2 0.00 0.00 0.00 61 1009.7
20260505184904 21 187 11.3 25.7 0.00 0.00 0.00 61 1009.7
20260505184620 21 212 11.3 24.1 0.00 0.00 0.00 61 1009.9
20260505184304 21 186 14.5 35.4 0.00 0.00 0.00 61 1009.7
20260505184204 21 186 14.5 35.4 0.00 0.00 0.00 61 1009.8
20260505184104 21 184 14.5 35.4 0.00 0.00 0.00 61 1009.8
20260505184004 21 178 14.5 35.4 0.00 0.00 0.00 61 1009.8
20260505183904 21 178 14.5 35.4 0.00 0.00 0.00 61 1009.7
20260505183804 21 177 14.5 35.4 0.00 0.00 0.00 61 1009.8
20260505183704 21 178 12.9 35.4 0.00 0.00 0.00 61 1009.8
20260505183604 21 177 12.9 35.4 0.00 0.00 0.00 61 1009.8
20260505183504 21 174 12.9 29.0 0.00 0.00 0.00 61 1009.8
20260505183404 21 176 11.3 30.6 0.00 0.00 0.00 61 1009.9
20260505183304 21 176 11.3 30.6 0.00 0.00 0.00 61 1009.9
20260505183204 21 176 11.3 30.6 0.00 0.00 0.00 61 1009.9
20260505183107 21 172 11.3 30.6 0.00 0.00 0.00 61 1010.2
20260505183104 21 174 11.3 30.6 0.00 0.00 0.00 61 1009.8
20260505183004 21 179 11.3 30.6 0.00 0.00 0.00 61 1009.9
20260505182904 21 178 11.3 30.6 0.00 0.00 0.00 61 1009.9
20260505182804 21 179 9.7 30.6 0.00 0.00 0.00 62 1009.9
20260505182703 21 177 9.7 30.6 0.00 0.00 0.00 62 1009.9
20260505182604 21 177 9.7 30.6 0.00 0.00 0.00 61 1010.0
20260505182503 21 179 9.7 30.6 0.00 0.00 0.00 61 1010.0
20260505182404 21 182 9.7 29.0 0.00 0.00 0.00 61 1010.0
20260505182306 21 186 11.3 29.0 0.00 0.00 0.00 62 1010.0
20260505182204 21 186 11.3 29.0 0.00 0.00 0.00 62 1009.9
20260505182104 21 189 11.3 25.7 0.00 0.00 0.00 62 1010.0
20260505182004 21 188 9.7 25.7 0.00 0.00 0.00 62 1009.9
20260505181904 21 190 11.3 25.7 0.00 0.00 0.00 62 1010.0
20260505181804 21 192 12.9 25.7 0.00 0.00 0.00 62 1010.0
20260505181704 21 191 12.9 32.2 0.00 0.00 0.00 62 1010.1
20260505181619 21 194 8.0 37.0 0.00 0.00 0.00 61 1010.2
20260505181604 21 191 14.5 32.2 0.00 0.00 0.00 61 1009.9
20260505181504 21 189 12.9 32.2 0.00 0.00 0.00 61 1010.0
20260505181405 21 188 12.9 32.2 0.00 0.00 0.00 61 1010.0
20260505181304 21 188 14.5 32.2 0.00 0.00 0.00 62 1010.1
20260505181204 21 190 14.5 32.2 0.00 0.00 0.00 62 1010.0
20260505181103 21 190 14.5 32.2 0.00 0.00 0.00 61 1010.0
20260505181004 21 190 14.5 32.2 0.00 0.00 0.00 61 1010.1
20260505180903 21 188 14.5 32.2 0.00 0.00 0.00 61 1010.0
20260505180804 21 188 14.5 32.2 0.00 0.00 0.00 61 1010.1
20260505180704 21 188 14.5 30.6 0.00 0.00 0.00 61 1010.0
20260505180604 21 186 14.5 30.6 0.00 0.00 0.00 61 1010.1
20260505180504 21 188 16.1 30.6 0.00 0.00 0.00 61 1010.1
20260505180404 21 187 14.5 32.2 0.00 0.00 0.00 62 1010.0
20260505180304 21 186 14.5 32.2 0.00 0.00 0.00 62 1010.0
20260505180204 21 184 14.5 32.2 0.00 0.00 0.00 61 1010.0
20260505180105 21 184 11.3 32.2 0.00 0.00 0.00 61 1010.2
20260505180004 21 183 12.9 32.2 0.00 0.00 0.00 61 1010.0
20260505175904 21 181 14.5 32.2 0.00 0.00 0.00 61 1009.9
20260505175804 21 182 14.5 37.0 0.00 0.00 0.00 61 1010.0
20260505175704 21 183 14.5 37.0 0.00 0.00 0.00 61 1010.0
20260505175604 21 184 14.5 37.0 0.00 0.00 0.00 61 1009.9
20260505175505 21 183 14.5 37.0 0.00 0.00 0.00 61 1010.0
20260505175404 21 184 14.5 37.0 0.00 0.00 0.00 61 1010.0
20260505175305 21 184 14.5 37.0 0.00 0.00 0.00 60 1010.0
20260505175204 21 183 14.5 37.0 0.00 0.00 0.00 60 1010.0
20260505175104 21 182 14.5 37.0 0.00 0.00 0.00 60 1010.0
20260505175004 21 179 16.1 37.0 0.00 0.00 0.00 61 1010.1
20260505174904 21 181 14.5 37.0 0.00 0.00 0.00 61 1010.1
20260505174804 21 178 16.1 33.8 0.00 0.00 0.00 61 1010.0
20260505174704 21 178 14.5 33.8 0.00 0.00 0.00 61 1010.1
20260505174617 21 150 17.7 33.8 0.00 0.00 0.00 61 1010.4
20260505174604 21 178 14.5 33.8 0.00 0.00 0.00 61 1010.0
20260505174504 21 179 12.9 33.8 0.00 0.00 0.00 62 1010.1
20260505174404 21 177 12.9 33.8 0.00 0.00 0.00 62 1010.0
20260505174304 21 177 12.9 29.0 0.00 0.00 0.00 62 1010.0
20260505174204 21 179 12.9 29.0 0.00 0.00 0.00 62 1010.0
20260505174104 21 181 12.9 29.0 0.00 0.00 0.00 62 1010.0
20260505174004 21 182 11.3 29.0 0.00 0.00 0.00 62 1010.0
20260505173904 21 182 11.3 29.0 0.00 0.00 0.00 62 1010.1
20260505173804 21 183 11.3 27.4 0.00 0.00 0.00 62 1010.1
20260505173704 21 181 11.3 27.4 0.00 0.00 0.00 62 1010.1
20260505173604 21 182 11.3 27.4 0.00 0.00 0.00 62 1010.1
20260505173504 21 181 11.3 27.4 0.00 0.00 0.00 62 1010.1
20260505173404 21 179 11.3 27.4 0.00 0.00 0.00 63 1010.1
20260505173304 21 178 11.3 27.4 0.00 0.00 0.00 63 1010.1
20260505173204 21 176 11.3 25.7 0.00 0.00 0.00 63 1010.1
20260505173106 21 243 11.3 25.7 0.00 0.00 0.00 62 1010.4
20260505173004 21 178 12.9 25.7 0.00 0.00 0.00 63 1010.1
20260505172904 21 177 12.9 25.7 0.00 0.00 0.00 62 1010.1
20260505172804 21 175 12.9 24.1 0.00 0.00 0.00 63 1010.1
20260505172704 21 176 12.9 24.1 0.00 0.00 0.00 63 1010.0
20260505172604 21 175 12.9 24.1 0.00 0.00 0.00 63 1010.1
20260505172504 21 175 11.3 24.1 0.00 0.00 0.00 63 1010.0
20260505172404 21 175 11.3 24.1 0.00 0.00 0.00 63 1010.0
20260505172306 21 174 12.9 24.1 0.00 0.00 0.00 63 1010.0
20260505172205 21 175 12.9 32.2 0.00 0.00 0.00 63 1010.1
20260505172104 21 174 12.9 32.2 0.00 0.00 0.00 63 1010.1
20260505172004 21 175 11.3 32.2 0.00 0.00 0.00 63 1010.1
20260505171905 21 176 11.3 32.2 0.00 0.00 0.00 63 1010.0
20260505171804 21 181 12.9 32.2 0.00 0.00 0.00 63 1010.1
20260505171704 21 182 12.9 32.2 0.00 0.00 0.00 63 1010.2
20260505171616 21 181 8.0 32.2 0.00 0.00 0.00 63 1010.4
20260505171604 21 185 14.5 32.2 0.00 0.00 0.00 63 1010.1
20260505171504 21 187 14.5 33.8 0.00 0.00 0.00 63 1010.2
20260505171404 21 187 14.5 33.8 0.00 0.00 0.00 63 1010.2
20260505171304 21 191 14.5 33.8 0.00 0.00 0.00 63 1010.2
20260505171204 21 192 14.5 33.8 0.00 0.00 0.00 62 1010.2
20260505171104 21 193 14.5 33.8 0.00 0.00 0.00 62 1010.1
20260505171004 21 193 14.5 33.8 0.00 0.00 0.00 62 1010.2
20260505170904 21 193 14.5 33.8 0.00 0.00 0.00 62 1010.2
20260505170804 21 192 12.9 33.8 0.00 0.00 0.00 62 1010.2
20260505170704 21 193 12.9 33.8 0.00 0.00 0.00 62 1010.2
20260505170604 21 194 12.9 33.8 0.00 0.00 0.00 62 1010.2
20260505170504 21 190 12.9 25.7 0.00 0.00 0.00 63 1010.2
20260505170404 21 187 14.5 25.7 0.00 0.00 0.00 62 1010.2
20260505170304 21 185 14.5 32.2 0.00 0.00 0.00 63 1010.2
20260505170204 21 183 14.5 32.2 0.00 0.00 0.00 63 1010.2
20260505170105 21 197 9.7 32.2 0.00 0.00 0.00 63 1010.4
20260505170004 21 176 16.1 32.2 0.00 0.00 0.00 63 1010.3
20260505165904 21 176 16.1 32.2 0.00 0.00 0.00 63 1010.3
20260505165804 21 174 16.1 32.2 0.00 0.00 0.00 62 1010.2
20260505165704 21 172 16.1 32.2 0.00 0.00 0.00 63 1010.2
20260505165103 21 172 16.1 29.0 0.00 0.00 0.00 63 1010.3
20260505165004 21 172 16.1 29.0 0.00 0.00 0.00 64 1010.2
20260505164904 21 170 16.1 30.6 0.00 0.00 0.00 64 1010.2
20260505164804 21 169 16.1 30.6 0.00 0.00 0.00 64 1010.3
20260505164704 21 167 16.1 30.6 0.00 0.00 0.00 63 1010.2
20260505164618 21 171 12.9 30.6 0.00 0.00 0.00 63 1010.5
20260505164604 21 167 16.1 30.6 0.00 0.00 0.00 63 1010.2
20260505164504 21 165 16.1 30.6 0.00 0.00 0.00 63 1010.3
20260505164404 21 164 17.7 30.6 0.00 0.00 0.00 63 1010.3
20260505164303 21 164 17.7 30.6 0.00 0.00 0.00 63 1010.3
20260505164204 21 161 17.7 30.6 0.00 0.00 0.00 63 1010.3
20260505164104 21 159 16.1 30.6 0.00 0.00 0.00 64 1010.3
20260505164004 21 159 16.1 30.6 0.00 0.00 0.00 63 1010.3
20260505163904 21 160 17.7 29.0 0.00 0.00 0.00 63 1010.3
20260505163804 21 160 16.1 29.0 0.00 0.00 0.00 63 1010.3
20260505163704 21 161 16.1 29.0 0.00 0.00 0.00 64 1010.3
20260505163604 21 160 16.1 27.4 0.00 0.00 0.00 64 1010.3
20260505163504 21 162 16.1 27.4 0.00 0.00 0.00 64 1010.3
20260505163404 21 160 16.1 27.4 0.00 0.00 0.00 64 1010.3
20260505163304 21 162 14.5 27.4 0.00 0.00 0.00 64 1010.3
20260505163204 21 163 14.5 27.4 0.00 0.00 0.00 64 1010.2
20260505163105 21 131 17.7 27.4 0.00 0.00 0.00 64 1010.5
20260505163004 21 165 12.9 27.4 0.00 0.00 0.00 64 1010.3
20260505162904 21 166 12.9 27.4 0.00 0.00 0.00 64 1010.4